AFR208 LFPG-RPLL

Flight info

Callsign AFR208
Flight time 12h 21m
Altitude 29000
Route LANVI DCT LUPEN/N0490F310 UM164 UTABA DCT INPUL DCT VATET DCT MOPUG DCT NERDI DCT ASNEL DCT UDROS DCT ABSAX UN743 GAKSU/N0489F330 UT310 SIN DCT DELEL DCT REBLO DCT MATAL T916 SUBUT M747 LUSAL N199 RASAM L88 METKA B476 DARVA/K0911F330 T898 OGOLI N193 SR L163 TISIB L141 USAFI/K0898F350 L141 KAMUD/K0898S1070 W186 SADAN Y1 OMBON W245 OVRAL B330 QNX/K0913S1130 B330 KWE W181 DUDIT A599 POU B330 TAMOT/N0493F370 B330 BIGEX DCT POVAM DCT NOPER V642 NOMAN A461 AVMUP W16 TADEL
Aircraft B77W/H-SDE1E2E3FGHIJ2J3J4J5M1RWXY/LB1D1

Departure

Time 2026-05-07 10:36
Airport Charles de Gaulle International Airport (LFPG)

Arrival

Time 2026-05-07 22:58
Airport Ninoy Aquino International Airport (RPLL)
Time Latitude Longitude Altitude Speed Heading
2026-05-07 09:53 49.00743 2.58351 365 ft 0 kts 85°
2026-05-07 10:26 49.00742 2.58332 366 ft 4 kts 82°
2026-05-07 10:26 49.00736 2.58292 367 ft 4 kts 69°
2026-05-07 10:26 49.00724 2.58257 363 ft 4 kts 48°
2026-05-07 10:27 49.00704 2.58236 365 ft 3 kts
2026-05-07 10:27 49.00700 2.58236 365 ft 0 kts 355°
2026-05-07 10:30 49.00709 2.58235 367 ft 2 kts 355°
2026-05-07 10:30 49.00742 2.58231 362 ft 7 kts 357°
2026-05-07 10:30 49.00807 2.58242 366 ft 12 kts 12°
2026-05-07 10:30 49.00903 2.58247 363 ft 16 kts 352°
2026-05-07 10:31 49.01028 2.58226 363 ft 20 kts 356°
2026-05-07 10:31 49.01176 2.58208 364 ft 22 kts 355°
2026-05-07 10:31 49.01330 2.58186 364 ft 22 kts 355°
2026-05-07 10:31 49.01484 2.58165 365 ft 22 kts 355°
2026-05-07 10:32 49.01639 2.58146 364 ft 22 kts 356°
2026-05-07 10:32 49.01793 2.58128 362 ft 22 kts 355°
2026-05-07 10:32 49.01943 2.58074 364 ft 22 kts 336°
2026-05-07 10:32 49.02025 2.57977 368 ft 22 kts 308°
2026-05-07 10:33 49.02086 2.57763 364 ft 22 kts 281°
2026-05-07 10:33 49.02082 2.57528 364 ft 22 kts 264°
2026-05-07 10:33 49.02071 2.57293 362 ft 22 kts 264°
2026-05-07 10:33 49.02083 2.57088 366 ft 14 kts 328°
2026-05-07 10:34 49.02180 2.57067 364 ft 14 kts 353°
2026-05-07 10:34 49.02276 2.57052 360 ft 14 kts 354°
2026-05-07 10:34 49.02356 2.56976 366 ft 14 kts 300°
2026-05-07 10:34 49.02358 2.56831 360 ft 14 kts 265°
2026-05-07 10:35 49.02350 2.56634 365 ft 29 kts 266°
2026-05-07 10:35 49.02315 2.55978 363 ft 98 kts 265°
2026-05-07 10:35 49.02239 2.54595 359 ft 162 kts 265°
2026-05-07 10:35 49.02142 2.52610 366 ft 209 kts 263°
2026-05-07 10:36 49.01991 2.50307 724 ft 220 kts 266°
2026-05-07 10:36 49.01883 2.47995 1510 ft 218 kts 266°
2026-05-07 10:36 49.01746 2.45693 2286 ft 217 kts 265°
2026-05-07 10:36 49.01569 2.43378 2724 ft 223 kts 266°
2026-05-07 10:37 49.01683 2.40991 2984 ft 233 kts 288°
2026-05-07 10:37 49.02509 2.38864 3206 ft 244 kts 318°
2026-05-07 10:37 49.03967 2.37433 3547 ft 255 kts 337°
2026-05-07 10:37 49.05612 2.36365 4053 ft 263 kts 339°
2026-05-07 10:38 49.07344 2.35268 4427 ft 272 kts 338°
2026-05-07 10:38 49.09134 2.34278 5033 ft 276 kts 342°
2026-05-07 10:38 49.11003 2.33497 5625 ft 280 kts 348°
2026-05-07 10:38 49.12925 2.32959 6233 ft 281 kts 354°
2026-05-07 10:39 49.14851 2.33297 6662 ft 285 kts 27°
2026-05-07 10:39 49.16330 2.35244 7228 ft 284 kts 60°
2026-05-07 10:39 49.16907 2.38081 7762 ft 281 kts 92°
2026-05-07 10:39 49.16493 2.40961 8228 ft 278 kts 116°
2026-05-07 10:40 49.15590 2.43546 8796 ft 276 kts 120°
2026-05-07 10:40 49.14602 2.46095 9191 ft 282 kts 120°
2026-05-07 10:40 49.13695 2.48819 9500 ft 293 kts 116°
2026-05-07 10:40 49.12867 2.51697 9899 ft 300 kts 111°
2026-05-07 10:41 49.12120 2.54739 10154 ft 314 kts 111°
2026-05-07 10:41 49.11363 2.57949 10339 ft 331 kts 109°
2026-05-07 10:41 49.10620 2.61382 10489 ft 349 kts 109°
2026-05-07 10:41 49.09799 2.64952 10683 ft 366 kts 111°
2026-05-07 10:42 49.08935 2.68656 11103 ft 375 kts 108°
2026-05-07 10:42 49.08205 2.72515 11661 ft 382 kts 105°
2026-05-07 10:42 49.07547 2.76460 12342 ft 385 kts 104°
2026-05-07 10:42 49.06898 2.80452 13075 ft 389 kts 104°
2026-05-07 10:43 49.06246 2.84420 13794 ft 393 kts 105°
2026-05-07 10:43 49.05564 2.88478 14439 ft 398 kts 105°
2026-05-07 10:43 49.04862 2.92587 15073 ft 402 kts 105°
2026-05-07 10:43 49.04147 2.96718 15702 ft 405 kts 105°
2026-05-07 10:44 49.03420 3.00888 16288 ft 409 kts 105°
2026-05-07 10:44 49.02682 3.05098 16880 ft 413 kts 105°
2026-05-07 10:44 49.01935 3.09344 17497 ft 417 kts 105°
2026-05-07 10:44 49.01180 3.13625 18145 ft 420 kts 105°
2026-05-07 10:45 49.00419 3.17928 18684 ft 423 kts 105°
2026-05-07 10:45 48.99650 3.22269 19206 ft 426 kts 105°
2026-05-07 10:45 48.98873 3.26650 19721 ft 429 kts 105°
2026-05-07 10:45 48.98089 3.31051 20246 ft 433 kts 105°
2026-05-07 10:46 48.97297 3.35490 20759 ft 436 kts 105°
2026-05-07 10:46 48.96499 3.39956 21266 ft 439 kts 106°
2026-05-07 10:46 48.95693 3.44457 21763 ft 442 kts 106°
2026-05-07 10:46 48.94880 3.48984 22255 ft 445 kts 106°
2026-05-07 10:47 48.94059 3.53542 22732 ft 449 kts 106°
2026-05-07 10:47 48.93398 3.58189 23163 ft 452 kts 98°
2026-05-07 10:47 48.93076 3.62975 23586 ft 456 kts 94°
2026-05-07 10:47 48.92900 3.67810 23987 ft 459 kts 93°
2026-05-07 10:48 48.92745 3.72671 24401 ft 461 kts 93°
2026-05-07 10:48 48.92562 3.77541 24817 ft 463 kts 94°
2026-05-07 10:48 48.92340 3.82441 25225 ft 465 kts 95°
2026-05-07 10:48 48.92088 3.87356 25622 ft 468 kts 95°
2026-05-07 10:49 48.91816 3.92308 25996 ft 471 kts 95°
2026-05-07 10:49 48.91537 3.97273 26382 ft 473 kts 95°
2026-05-07 10:49 48.91257 4.02200 26747 ft 475 kts 95°
2026-05-07 10:49 48.90974 4.07216 27099 ft 478 kts 95°
2026-05-07 10:50 48.90690 4.12251 27444 ft 480 kts 95°
2026-05-07 10:50 48.90401 4.17323 27781 ft 482 kts 95°
2026-05-07 10:50 48.89996 4.22375 28045 ft 483 kts 103°
2026-05-07 10:50 48.88806 4.27138 28228 ft 482 kts 120°
2026-05-07 10:51 48.87095 4.31532 28437 ft 485 kts 121°
2026-05-07 10:51 48.85365 4.35959 28714 ft 488 kts 121°
2026-05-07 10:51 48.83655 4.40417 29034 ft 489 kts 120°
2026-05-07 10:51 48.81964 4.44911 29335 ft 491 kts 120°
2026-05-07 10:52 48.80284 4.49435 29600 ft 493 kts 120°
2026-05-07 10:52 48.78611 4.53971 29844 ft 494 kts 119°
2026-05-07 10:52 48.76937 4.58523 30142 ft 494 kts 119°
2026-05-07 10:52 48.75261 4.63076 30451 ft 493 kts 119°
2026-05-07 10:53 48.73591 4.67604 30751 ft 492 kts 119°
2026-05-07 10:53 48.71915 4.72134 30989 ft 494 kts 119°
2026-05-07 10:53 48.68533 4.81240 31081 ft 498 kts 119°
2026-05-07 10:54 48.65108 4.90425 31086 ft 504 kts 119°
2026-05-07 10:54 48.61644 4.99682 31085 ft 508 kts 119°
2026-05-07 10:55 48.58141 5.09012 31078 ft 512 kts 119°
2026-05-07 10:55 48.54611 5.18383 31069 ft 514 kts 120°
2026-05-07 10:56 48.51056 5.27782 31046 ft 516 kts 120°
2026-05-07 10:56 48.47491 5.37176 31040 ft 516 kts 120°
2026-05-07 10:57 48.43923 5.46546 31039 ft 515 kts 120°
2026-05-07 10:57 48.40355 5.55885 31042 ft 514 kts 120°
2026-05-07 10:58 48.36812 5.65128 31046 ft 513 kts 120°
2026-05-07 10:58 48.33248 5.74400 31042 ft 510 kts 119°
2026-05-07 10:59 48.31842 5.79334 31052 ft 507 kts 104°
2026-05-07 10:59 48.31363 5.84494 31042 ft 507 kts 88°
2026-05-07 10:59 48.32271 5.94933 31062 ft 506 kts 82°
2026-05-07 11:00 48.33072 6.05476 31062 ft 510 kts 84°
2026-05-07 11:00 48.33783 6.16130 31055 ft 514 kts 84°
2026-05-07 11:01 48.34494 6.26843 31052 ft 516 kts 84°
2026-05-07 11:01 48.35215 6.37590 31044 ft 517 kts 84°
2026-05-07 11:02 48.35932 6.48339 31049 ft 516 kts 84°
2026-05-07 11:02 48.36636 6.59068 31043 ft 515 kts 84°
2026-05-07 11:03 48.37327 6.69759 31034 ft 513 kts 84°
2026-05-07 11:03 48.38006 6.80427 31039 ft 512 kts 84°
2026-05-07 11:04 48.38673 6.91074 31045 ft 511 kts 84°
2026-05-07 11:04 48.39331 7.01717 31041 ft 511 kts 84°
2026-05-07 11:05 48.39980 7.12382 31038 ft 512 kts 84°
2026-05-07 11:05 48.40620 7.23063 31042 ft 513 kts 84°
2026-05-07 11:06 48.41246 7.33684 31039 ft 513 kts 84°
2026-05-07 11:06 48.41866 7.44378 31041 ft 513 kts 84°
2026-05-07 11:07 48.42476 7.55061 31042 ft 512 kts 85°
2026-05-07 11:07 48.43077 7.65733 31047 ft 511 kts 85°
2026-05-07 11:08 48.43239 7.76423 31042 ft 511 kts 94°
2026-05-07 11:08 48.42255 7.87028 31059 ft 511 kts 98°
2026-05-07 11:09 48.41151 7.97607 31044 ft 512 kts 98°
2026-05-07 11:09 48.40076 8.08223 31041 ft 513 kts 98°
2026-05-07 11:10 48.39015 8.18841 31036 ft 513 kts 98°
2026-05-07 11:10 48.37947 8.29459 31034 ft 513 kts 98°
2026-05-07 11:11 48.36869 8.40073 31025 ft 513 kts 98°
2026-05-07 11:11 48.35779 8.50672 31023 ft 513 kts 98°
2026-05-07 11:12 48.34687 8.61203 31036 ft 512 kts 98°
2026-05-07 11:12 48.33578 8.71786 31018 ft 513 kts 98°
2026-05-07 11:13 48.32459 8.82375 31020 ft 514 kts 98°
2026-05-07 11:13 48.31328 8.92983 31014 ft 514 kts 98°
2026-05-07 11:14 48.30186 9.03594 31017 ft 515 kts 99°
2026-05-07 11:14 48.29032 9.14224 31019 ft 515 kts 98°
2026-05-07 11:15 48.27869 9.24840 31011 ft 515 kts 98°
2026-05-07 11:15 48.26698 9.35442 31013 ft 514 kts 98°
2026-05-07 11:16 48.25522 9.46008 31018 ft 514 kts 98°
2026-05-07 11:16 48.24344 9.56504 31018 ft 513 kts 99°
2026-05-07 11:17 48.23152 9.67062 31020 ft 513 kts 99°
2026-05-07 11:17 48.21952 9.77610 31022 ft 513 kts 99°
2026-05-07 11:18 48.20743 9.88157 31032 ft 513 kts 99°
2026-05-07 11:18 48.19522 9.98709 31023 ft 514 kts 99°
2026-05-07 11:19 48.18288 10.09284 31028 ft 515 kts 99°
2026-05-07 11:19 48.17051 10.19804 31015 ft 516 kts 99°
2026-05-07 11:20 48.15787 10.30457 31025 ft 517 kts 100°
2026-05-07 11:20 48.14733 10.39279 31013 ft 517 kts 100°
2026-05-07 11:21 48.13456 10.49887 31019 ft 518 kts 100°
2026-05-07 11:21 48.12170 10.60483 31020 ft 518 kts 100°
2026-05-07 11:22 48.10872 10.71085 31018 ft 518 kts 100°
2026-05-07 11:22 48.09564 10.81705 31016 ft 519 kts 101°
2026-05-07 11:23 48.08243 10.92321 31027 ft 520 kts 101°
2026-05-07 11:23 48.06910 11.02953 31023 ft 521 kts 101°
2026-05-07 11:24 48.05565 11.13602 31021 ft 521 kts 102°
2026-05-07 11:24 48.04208 11.24263 31016 ft 522 kts 102°
2026-05-07 11:25 48.02849 11.34860 31022 ft 523 kts 102°
2026-05-07 11:25 48.01469 11.45534 31020 ft 524 kts 102°
2026-05-07 11:26 48.00078 11.56217 31005 ft 524 kts 103°
2026-05-07 11:26 47.98675 11.66904 31012 ft 525 kts 103°
2026-05-07 11:27 47.97261 11.77591 31010 ft 526 kts 103°
2026-05-07 11:27 47.95834 11.88299 31006 ft 526 kts 103°
2026-05-07 11:28 47.94396 11.99010 30994 ft 527 kts 104°
2026-05-07 11:28 47.92948 12.09719 31005 ft 527 kts 104°
2026-05-07 11:29 47.91489 12.20423 31011 ft 527 kts 104°
2026-05-07 11:29 47.90021 12.31122 31010 ft 527 kts 104°
2026-05-07 11:30 47.88541 12.41823 31011 ft 527 kts 105°
2026-05-07 11:30 47.87052 12.52509 31010 ft 526 kts 105°
2026-05-07 11:31 47.85558 12.63166 31015 ft 525 kts 105°
2026-05-07 11:31 47.84070 12.73713 31004 ft 524 kts 105°
2026-05-07 11:32 47.81386 12.89396 31007 ft 518 kts 110°
2026-05-07 11:33 47.79419 12.99780 31022 ft 518 kts 110°
2026-05-07 11:33 47.77505 13.10111 31022 ft 519 kts 109°
2026-05-07 11:34 47.75628 13.20407 31006 ft 519 kts 111°
2026-05-07 11:34 47.73732 13.30752 31000 ft 520 kts 111°
2026-05-07 11:35 47.71816 13.41110 31002 ft 519 kts 111°
2026-05-07 11:35 47.69900 13.51431 31005 ft 519 kts 110°
2026-05-07 11:36 47.67974 13.61746 30998 ft 518 kts 112°
2026-05-07 11:36 47.66037 13.72049 30993 ft 519 kts 112°
2026-05-07 11:37 47.64088 13.82354 30992 ft 520 kts 112°
2026-05-07 11:37 47.62126 13.92683 30979 ft 520 kts 112°
2026-05-07 11:38 47.60164 14.02972 30952 ft 517 kts 112°
2026-05-07 11:38 47.58331 14.13263 30959 ft 516 kts 112°
2026-05-07 11:39 47.56431 14.23502 30982 ft 516 kts 112°
2026-05-07 11:39 47.54535 14.33759 30974 ft 516 kts 112°
2026-05-07 11:40 47.52644 14.44001 30962 ft 517 kts 112°
2026-05-07 11:40 47.50742 14.54256 30965 ft 518 kts 112°
2026-05-07 11:41 47.48823 14.64537 30969 ft 519 kts 112°
2026-05-07 11:41 47.46901 14.74769 30913 ft 520 kts 112°
2026-05-07 11:42 47.44967 14.85033 30953 ft 518 kts 112°
2026-05-07 11:42 47.43026 14.95280 30952 ft 518 kts 113°
2026-05-07 11:43 47.41077 15.05498 30976 ft 517 kts 113°
2026-05-07 11:43 47.39113 15.15728 30934 ft 517 kts 112°
2026-05-07 11:44 47.37149 15.25907 30974 ft 517 kts 113°
2026-05-07 11:44 47.35168 15.36116 30967 ft 517 kts 113°
2026-05-07 11:45 47.33189 15.46297 30955 ft 516 kts 113°
2026-05-07 11:45 47.31203 15.56444 30940 ft 514 kts 112°
2026-05-07 11:46 47.29212 15.66563 30957 ft 514 kts 112°
2026-05-07 11:46 47.27208 15.76674 30975 ft 515 kts 113°
2026-05-07 11:47 47.25190 15.86797 30970 ft 515 kts 113°
2026-05-07 11:47 47.23167 15.96918 30968 ft 516 kts 113°
2026-05-07 11:48 47.21129 16.07056 30977 ft 518 kts 113°
2026-05-07 11:48 47.19072 16.17232 30976 ft 519 kts 113°
2026-05-07 11:49 47.17005 16.27410 30987 ft 520 kts 113°
2026-05-07 11:49 47.14937 16.37545 30984 ft 521 kts 113°
2026-05-07 11:50 47.12831 16.47804 30989 ft 521 kts 113°
2026-05-07 11:50 47.10749 16.57905 30983 ft 520 kts 113°
2026-05-07 11:51 47.08643 16.68065 30960 ft 520 kts 113°
2026-05-07 11:51 47.06528 16.78216 30986 ft 520 kts 113°
2026-05-07 11:52 47.04401 16.88369 30999 ft 521 kts 114°
2026-05-07 11:52 47.02265 16.98516 31001 ft 522 kts 114°
2026-05-07 11:53 47.00115 17.08683 30983 ft 523 kts 113°
2026-05-07 11:53 46.97941 17.18904 31012 ft 527 kts 113°
2026-05-07 11:54 46.95745 17.29175 30989 ft 529 kts 113°
2026-05-07 11:54 46.93554 17.39392 30990 ft 529 kts 114°
2026-05-07 11:55 46.91345 17.49640 31008 ft 528 kts 113°
2026-05-07 11:55 46.89124 17.59885 31016 ft 528 kts 114°
2026-05-07 11:56 46.86893 17.70117 31006 ft 528 kts 114°
2026-05-07 11:56 46.84659 17.80321 31017 ft 527 kts 114°
2026-05-07 11:57 46.82418 17.90506 31018 ft 527 kts 113°
2026-05-07 11:57 46.80164 18.00692 31010 ft 528 kts 113°
2026-05-07 11:58 46.77898 18.10893 31015 ft 528 kts 113°
2026-05-07 11:58 46.75624 18.21078 30988 ft 528 kts 113°
2026-05-07 11:59 46.73359 18.31177 31009 ft 527 kts 113°
2026-05-07 11:59 46.71071 18.41326 31017 ft 527 kts 113°
2026-05-07 12:00 46.68775 18.51463 31019 ft 527 kts 113°
2026-05-07 12:00 46.66470 18.61589 31008 ft 526 kts 113°
2026-05-07 12:01 46.64159 18.71699 31023 ft 526 kts 113°
2026-05-07 12:01 46.61838 18.81803 31014 ft 526 kts 113°
2026-05-07 12:02 46.59509 18.91895 31014 ft 526 kts 113°
2026-05-07 12:02 46.57174 19.01966 31016 ft 526 kts 113°
2026-05-07 12:03 46.54831 19.12022 31017 ft 526 kts 113°
2026-05-07 12:03 46.52473 19.22094 31005 ft 526 kts 113°
2026-05-07 12:04 46.50113 19.32135 30996 ft 526 kts 114°
2026-05-07 12:04 46.47743 19.42172 31010 ft 526 kts 114°
2026-05-07 12:05 46.45379 19.52135 31013 ft 526 kts 114°
2026-05-07 12:05 46.42991 19.62153 31014 ft 526 kts 114°
2026-05-07 12:06 46.40591 19.72178 30999 ft 526 kts 114°
2026-05-07 12:06 46.38180 19.82201 31012 ft 527 kts 114°
2026-05-07 12:07 46.35757 19.92230 31014 ft 527 kts 114°
2026-05-07 12:07 46.33328 20.02240 31016 ft 528 kts 114°
2026-05-07 12:08 46.30902 20.12192 31019 ft 528 kts 114°
2026-05-07 12:08 46.28452 20.22197 31018 ft 528 kts 114°
2026-05-07 12:09 46.25993 20.32197 31021 ft 527 kts 114°
2026-05-07 12:09 46.23930 20.40553 31009 ft 527 kts 114°
2026-05-07 12:10 46.21465 20.50496 31016 ft 525 kts 114°
2026-05-07 12:10 46.19014 20.60342 31018 ft 523 kts 114°
2026-05-07 12:11 46.16546 20.70217 31025 ft 523 kts 114°
2026-05-07 12:11 46.13993 20.80007 31016 ft 521 kts 115°
2026-05-07 12:12 46.11345 20.89752 31045 ft 521 kts 115°
2026-05-07 12:12 46.08695 20.99479 31035 ft 522 kts 115°
2026-05-07 12:13 46.06052 21.09217 31024 ft 522 kts 115°
2026-05-07 12:13 46.03418 21.18914 31049 ft 523 kts 115°
2026-05-07 12:14 46.00755 21.28682 31047 ft 524 kts 115°
2026-05-07 12:14 45.98078 21.38453 31044 ft 525 kts 115°
2026-05-07 12:15 45.95391 21.48216 31029 ft 525 kts 115°
2026-05-07 12:15 45.92698 21.57967 31034 ft 525 kts 115°
2026-05-07 12:16 45.89995 21.67710 31040 ft 526 kts 115°
2026-05-07 12:16 45.87279 21.77458 31036 ft 526 kts 115°
2026-05-07 12:17 45.84556 21.87196 31038 ft 526 kts 115°
2026-05-07 12:17 45.81822 21.96935 31038 ft 527 kts 115°
2026-05-07 12:18 45.79075 22.06679 31039 ft 527 kts 115°
2026-05-07 12:18 45.76336 22.16361 31026 ft 528 kts 115°
2026-05-07 12:19 45.73569 22.26096 31045 ft 528 kts 116°
2026-05-07 12:19 45.70791 22.35846 31038 ft 530 kts 116°
2026-05-07 12:20 45.67999 22.45593 31043 ft 529 kts 116°
2026-05-07 12:20 45.65193 22.55334 31039 ft 531 kts 116°
2026-05-07 12:21 45.62375 22.65096 31047 ft 532 kts 116°
2026-05-07 12:21 45.59537 22.74888 31046 ft 533 kts 116°
2026-05-07 12:22 45.56690 22.84680 31032 ft 534 kts 116°
2026-05-07 12:22 45.53830 22.94472 31053 ft 535 kts 116°
2026-05-07 12:23 45.50951 23.04285 31044 ft 536 kts 116°
2026-05-07 12:23 45.48069 23.14078 31063 ft 536 kts 116°
2026-05-07 12:24 45.45175 23.23866 31060 ft 536 kts 116°
2026-05-07 12:24 45.42271 23.33655 31074 ft 537 kts 116°
2026-05-07 12:25 45.39378 23.43371 31082 ft 537 kts 116°
2026-05-07 12:25 45.36453 23.53149 31075 ft 538 kts 116°
2026-05-07 12:26 45.33523 23.62917 31066 ft 537 kts 116°
2026-05-07 12:26 45.30588 23.72693 31060 ft 537 kts 115°
2026-05-07 12:27 45.27795 23.82529 31085 ft 535 kts 114°
2026-05-07 12:27 45.25062 23.92364 31058 ft 536 kts 114°
2026-05-07 12:28 45.22299 24.02212 31065 ft 538 kts 114°
2026-05-07 12:28 45.19522 24.11994 31047 ft 539 kts 114°
2026-05-07 12:29 45.16702 24.21861 31049 ft 540 kts 114°
2026-05-07 12:29 45.13880 24.31703 31047 ft 539 kts 114°
2026-05-07 12:30 45.11060 24.41506 31044 ft 537 kts 114°
2026-05-07 12:30 45.08236 24.51280 31028 ft 536 kts 114°
2026-05-07 12:31 45.05407 24.61033 31041 ft 536 kts 114°
2026-05-07 12:31 45.02570 24.70784 31041 ft 536 kts 114°
2026-05-07 12:32 44.99716 24.80547 31051 ft 537 kts 114°
2026-05-07 12:32 44.96856 24.90291 31035 ft 538 kts 114°
2026-05-07 12:33 44.92543 25.04919 31038 ft 538 kts 114°
2026-05-07 12:33 44.89657 25.14661 31043 ft 538 kts 114°
2026-05-07 12:34 44.86760 25.24396 31038 ft 538 kts 114°
2026-05-07 12:34 44.83855 25.34127 31039 ft 539 kts 114°
2026-05-07 12:35 44.80962 25.43784 31034 ft 539 kts 114°
2026-05-07 12:35 44.78040 25.53494 31031 ft 539 kts 114°
2026-05-07 12:36 44.75106 25.63208 31037 ft 539 kts 114°
2026-05-07 12:36 44.72165 25.72909 31039 ft 539 kts 114°
2026-05-07 12:37 44.69213 25.82608 31033 ft 540 kts 113°
2026-05-07 12:37 44.66250 25.92309 31058 ft 540 kts 113°
2026-05-07 12:38 44.63274 26.02014 31046 ft 541 kts 114°
2026-05-07 12:38 44.60285 26.11727 31043 ft 542 kts 114°
2026-05-07 12:39 44.57289 26.21424 31048 ft 542 kts 113°
2026-05-07 12:39 44.54305 26.31052 31035 ft 542 kts 114°
2026-05-07 12:40 44.50932 26.40510 31025 ft 542 kts 119°
2026-05-07 12:40 44.47236 26.49724 31037 ft 542 kts 119°
2026-05-07 12:41 44.43526 26.58927 31038 ft 543 kts 119°
2026-05-07 12:41 44.39855 26.68154 31034 ft 543 kts 119°
2026-05-07 12:42 44.36194 26.77404 31036 ft 543 kts 119°
2026-05-07 12:42 44.32532 26.86634 31036 ft 543 kts 119°
2026-05-07 12:43 44.28857 26.95851 31052 ft 543 kts 119°
2026-05-07 12:43 44.25174 27.05053 31045 ft 543 kts 119°
2026-05-07 12:44 44.21478 27.14255 31060 ft 544 kts 119°
2026-05-07 12:44 44.17769 27.23463 31041 ft 545 kts 119°
2026-05-07 12:45 44.14053 27.32658 31045 ft 545 kts 119°
2026-05-07 12:45 44.10325 27.41851 31058 ft 545 kts 119°
2026-05-07 12:46 44.06586 27.51044 31057 ft 546 kts 119°
2026-05-07 12:46 44.02840 27.60224 31062 ft 546 kts 119°
2026-05-07 12:47 43.99111 27.69332 31077 ft 545 kts 119°
2026-05-07 12:47 43.95356 27.78475 31073 ft 545 kts 119°
2026-05-07 12:48 43.91569 27.87666 31083 ft 545 kts 119°
2026-05-07 12:48 43.87831 27.96709 31091 ft 544 kts 119°
2026-05-07 12:49 43.84058 28.05806 31094 ft 544 kts 119°
2026-05-07 12:49 43.80283 28.14882 31102 ft 544 kts 119°
2026-05-07 12:50 43.76503 28.23938 31123 ft 543 kts 118°
2026-05-07 12:50 43.72718 28.32981 31105 ft 543 kts 119°
2026-05-07 12:51 43.68921 28.42024 31117 ft 544 kts 119°
2026-05-07 12:51 43.65112 28.51067 31137 ft 545 kts 119°
2026-05-07 12:52 43.61290 28.60109 31133 ft 546 kts 119°
2026-05-07 12:52 43.57452 28.69163 31139 ft 546 kts 119°
2026-05-07 12:53 43.53612 28.78193 31154 ft 546 kts 118°
2026-05-07 12:53 43.49765 28.87211 31138 ft 546 kts 119°
2026-05-07 12:54 43.45911 28.96219 31147 ft 546 kts 119°
2026-05-07 12:54 43.42052 29.05209 31152 ft 546 kts 119°
2026-05-07 12:55 43.38187 29.14186 31153 ft 546 kts 119°
2026-05-07 12:55 43.34310 29.23163 31152 ft 546 kts 119°
2026-05-07 12:56 43.31085 29.30607 31150 ft 546 kts 119°
2026-05-07 12:56 43.27201 29.39550 31159 ft 545 kts 119°
2026-05-07 12:57 43.22679 29.49927 31150 ft 545 kts 119°
2026-05-07 12:57 43.18787 29.58827 31152 ft 544 kts 119°
2026-05-07 12:58 43.15521 29.66277 31135 ft 544 kts 119°
2026-05-07 12:58 43.11637 29.75112 31151 ft 545 kts 119°
2026-05-07 12:59 43.07711 29.84017 31152 ft 547 kts 119°
2026-05-07 12:59 43.03773 29.92920 31169 ft 548 kts 119°
2026-05-07 13:00 42.99822 30.01824 31153 ft 547 kts 119°
2026-05-07 13:00 42.95868 30.10708 31154 ft 547 kts 119°
2026-05-07 13:01 42.91916 30.19561 31164 ft 546 kts 119°
2026-05-07 13:01 42.87964 30.28389 31150 ft 545 kts 119°
2026-05-07 13:02 42.84017 30.37181 31153 ft 544 kts 119°
2026-05-07 13:02 42.80066 30.45956 31165 ft 543 kts 119°
2026-05-07 13:03 42.76135 30.54736 31150 ft 542 kts 117°
2026-05-07 13:03 42.73042 30.64034 31158 ft 538 kts 106°
2026-05-07 13:04 42.71041 30.73787 31165 ft 535 kts 100°
2026-05-07 13:04 42.69189 30.83595 31149 ft 536 kts 101°
2026-05-07 13:05 42.67286 30.93406 31150 ft 537 kts 101°
2026-05-07 13:05 42.65347 31.03215 31148 ft 538 kts 101°
2026-05-07 13:06 42.63403 31.12981 31150 ft 539 kts 101°
2026-05-07 13:06 42.61442 31.22799 31150 ft 539 kts 101°
2026-05-07 13:07 42.59475 31.32607 31149 ft 539 kts 101°
2026-05-07 13:07 42.57496 31.42428 31166 ft 539 kts 101°
2026-05-07 13:08 42.55512 31.52231 31154 ft 539 kts 101°
2026-05-07 13:08 42.53519 31.62025 31144 ft 538 kts 101°
2026-05-07 13:09 42.51520 31.71804 31159 ft 538 kts 101°
2026-05-07 13:09 42.49514 31.81572 31145 ft 538 kts 101°
2026-05-07 13:10 42.47502 31.91319 31155 ft 537 kts 101°
2026-05-07 13:10 42.45494 32.01000 31156 ft 537 kts 101°
2026-05-07 13:11 42.43467 32.10730 31166 ft 536 kts 102°
2026-05-07 13:11 42.41439 32.20415 31151 ft 533 kts 102°
2026-05-07 13:12 42.39414 32.30044 31145 ft 531 kts 102°
2026-05-07 13:12 42.37389 32.39632 31163 ft 529 kts 103°
2026-05-07 13:13 42.35363 32.49189 31147 ft 528 kts 103°
2026-05-07 13:13 42.33381 32.58737 31152 ft 526 kts 100°
2026-05-07 13:14 42.32175 32.68453 31159 ft 523 kts 95°
2026-05-07 13:14 42.31132 32.78192 31154 ft 524 kts 95°
2026-05-07 13:15 42.30044 32.87948 31154 ft 526 kts 95°
2026-05-07 13:15 42.28919 32.97704 31163 ft 527 kts 95°
2026-05-07 13:16 42.28349 33.02601 31274 ft 528 kts 95°
2026-05-07 13:16 42.27783 33.07435 31563 ft 526 kts 96°
2026-05-07 13:16 42.27214 33.12286 31934 ft 522 kts 96°
2026-05-07 13:16 42.26645 33.17119 32202 ft 521 kts 96°
2026-05-07 13:17 42.26076 33.21944 32372 ft 521 kts 96°
2026-05-07 13:17 42.25505 33.26781 32529 ft 522 kts 96°
2026-05-07 13:17 42.24933 33.31608 32699 ft 522 kts 96°
2026-05-07 13:17 42.24358 33.36435 32974 ft 520 kts 96°
2026-05-07 13:18 42.23782 33.41245 33094 ft 519 kts 96°
2026-05-07 13:18 42.23205 33.46052 33151 ft 518 kts 96°
2026-05-07 13:18 42.22051 33.55613 33152 ft 515 kts 96°
2026-05-07 13:19 42.20894 33.65141 33157 ft 514 kts 96°
2026-05-07 13:19 42.19731 33.74652 33159 ft 514 kts 96°
2026-05-07 13:20 42.18559 33.84161 33162 ft 514 kts 96°
2026-05-07 13:20 42.17378 33.93681 33156 ft 515 kts 96°
2026-05-07 13:21 42.16190 34.03206 33159 ft 516 kts 97°
2026-05-07 13:21 42.15000 34.12682 33159 ft 516 kts 97°
2026-05-07 13:22 42.13795 34.22212 33151 ft 516 kts 96°
2026-05-07 13:22 42.12581 34.31749 33162 ft 517 kts 97°
2026-05-07 13:23 42.11359 34.41293 33147 ft 517 kts 97°
2026-05-07 13:23 42.10089 34.50826 33161 ft 517 kts 97°
2026-05-07 13:24 42.08759 34.60344 33151 ft 517 kts 97°
2026-05-07 13:24 42.07429 34.69862 33148 ft 517 kts 97°
2026-05-07 13:25 42.06101 34.79378 33142 ft 517 kts 97°
2026-05-07 13:25 42.04775 34.88885 33155 ft 517 kts 96°
2026-05-07 13:26 42.03519 34.98411 33160 ft 517 kts 96°
2026-05-07 13:26 42.02266 35.07869 33154 ft 517 kts 97°
2026-05-07 13:27 42.00858 35.17366 33154 ft 518 kts 98°
2026-05-07 13:27 41.99348 35.26838 33165 ft 518 kts 98°
2026-05-07 13:28 41.97840 35.36291 33173 ft 517 kts 98°
2026-05-07 13:28 41.96347 35.45732 33160 ft 516 kts 98°
2026-05-07 13:29 41.94861 35.55148 33173 ft 514 kts 99°
2026-05-07 13:29 41.93371 35.64529 33160 ft 513 kts 99°
2026-05-07 13:30 41.91876 35.73883 33168 ft 511 kts 99°
2026-05-07 13:30 41.90377 35.83207 33164 ft 511 kts 99°
2026-05-07 13:31 41.88872 35.92517 33179 ft 510 kts 100°
2026-05-07 13:31 41.87361 36.01812 33168 ft 509 kts 100°
2026-05-07 13:32 41.85846 36.11080 33169 ft 508 kts 100°
2026-05-07 13:32 41.84324 36.20344 33168 ft 508 kts 100°
2026-05-07 13:33 41.82806 36.29532 33178 ft 508 kts 100°
2026-05-07 13:33 41.81269 36.38790 33175 ft 509 kts 101°
2026-05-07 13:34 41.78951 36.52656 33165 ft 508 kts 101°
2026-05-07 13:35 41.77398 36.61880 33171 ft 507 kts 101°
2026-05-07 13:35 41.75841 36.71085 33170 ft 507 kts 101°
2026-05-07 13:36 41.74277 36.80283 33168 ft 506 kts 101°
2026-05-07 13:36 41.72705 36.89482 33167 ft 506 kts 101°
2026-05-07 13:37 41.71127 36.98667 33173 ft 506 kts 101°
2026-05-07 13:37 41.69541 37.07852 33167 ft 506 kts 101°
2026-05-07 13:38 41.67949 37.17029 33170 ft 506 kts 101°
2026-05-07 13:38 41.66360 37.26138 33181 ft 506 kts 101°
2026-05-07 13:39 41.64752 37.35310 33167 ft 506 kts 101°
2026-05-07 13:39 41.63138 37.44469 33183 ft 506 kts 101°
2026-05-07 13:40 41.61519 37.53609 33167 ft 505 kts 101°
2026-05-07 13:40 41.59894 37.62743 33183 ft 505 kts 101°
2026-05-07 13:41 41.58263 37.71863 33169 ft 504 kts 101°
2026-05-07 13:41 41.56628 37.80958 33174 ft 503 kts 101°
2026-05-07 13:42 41.54988 37.90040 33178 ft 503 kts 101°
2026-05-07 13:42 41.53339 37.99125 33180 ft 504 kts 101°
2026-05-07 13:43 41.51683 38.08206 33190 ft 504 kts 101°
2026-05-07 13:43 41.50018 38.17292 33191 ft 504 kts 102°
2026-05-07 13:44 41.48347 38.26369 33195 ft 504 kts 102°
2026-05-07 13:44 41.46665 38.35460 33193 ft 505 kts 102°
2026-05-07 13:45 41.44976 38.44550 33194 ft 506 kts 102°
2026-05-07 13:45 41.43287 38.53588 33197 ft 506 kts 102°
2026-05-07 13:46 41.41581 38.62682 33192 ft 506 kts 102°
2026-05-07 13:46 41.39865 38.71784 33181 ft 507 kts 102°
2026-05-07 13:47 41.38141 38.80885 33183 ft 507 kts 102°
2026-05-07 13:47 41.36409 38.89987 33180 ft 507 kts 102°
2026-05-07 13:48 41.34667 38.99096 33178 ft 508 kts 103°
2026-05-07 13:48 41.33212 39.06672 33179 ft 508 kts 103°
2026-05-07 13:49 41.31455 39.15786 33188 ft 509 kts 103°
2026-05-07 13:49 41.29689 39.24901 33193 ft 509 kts 103°
2026-05-07 13:50 41.27913 39.34027 33187 ft 510 kts 103°
2026-05-07 13:50 41.26129 39.43150 33188 ft 510 kts 103°
2026-05-07 13:51 41.24339 39.52263 33210 ft 510 kts 104°
2026-05-07 13:51 41.22539 39.61381 33198 ft 510 kts 104°
2026-05-07 13:52 41.20735 39.70486 33205 ft 509 kts 104°
2026-05-07 13:52 41.18925 39.79574 33206 ft 509 kts 104°
2026-05-07 13:53 41.17109 39.88658 33207 ft 509 kts 104°
2026-05-07 13:53 41.15286 39.97733 33196 ft 509 kts 104°
2026-05-07 13:54 41.13452 40.06820 33201 ft 510 kts 104°
2026-05-07 13:54 41.11610 40.15908 33195 ft 510 kts 104°
2026-05-07 13:55 41.09760 40.24994 33179 ft 511 kts 105°
2026-05-07 13:55 41.07911 40.34035 33188 ft 512 kts 105°
2026-05-07 13:56 41.06042 40.43137 33187 ft 512 kts 105°
2026-05-07 13:56 41.04162 40.52249 33193 ft 513 kts 105°
2026-05-07 13:57 41.02275 40.61358 33198 ft 513 kts 105°
2026-05-07 13:57 41.00379 40.70474 33206 ft 514 kts 105°
2026-05-07 13:58 40.98474 40.79595 33197 ft 514 kts 105°
2026-05-07 13:58 40.96727 40.88764 33189 ft 514 kts 100°
2026-05-07 13:59 40.96084 40.98175 33194 ft 515 kts 92°
2026-05-07 13:59 40.95830 41.07648 33190 ft 515 kts 92°
2026-05-07 14:00 40.95541 41.17124 33184 ft 516 kts 93°
2026-05-07 14:00 40.95214 41.26598 33164 ft 516 kts 93°
2026-05-07 14:01 40.94868 41.36093 33167 ft 517 kts 94°
2026-05-07 14:01 40.94512 41.45591 33154 ft 518 kts 94°
2026-05-07 14:02 40.94145 41.55117 33167 ft 518 kts 94°
2026-05-07 14:02 40.93780 41.64650 33157 ft 519 kts 94°
2026-05-07 14:03 40.93406 41.74196 33155 ft 520 kts 94°
2026-05-07 14:03 40.93019 41.83765 33153 ft 521 kts 94°
2026-05-07 14:04 40.92625 41.93291 33159 ft 522 kts 94°
2026-05-07 14:04 40.92222 42.02885 33172 ft 522 kts 94°
2026-05-07 14:05 40.91812 42.12470 33171 ft 523 kts 95°
2026-05-07 14:05 40.91392 42.22072 33178 ft 523 kts 95°
2026-05-07 14:06 40.90963 42.31682 33183 ft 524 kts 95°
2026-05-07 14:06 40.90527 42.41295 33183 ft 524 kts 95°
2026-05-07 14:07 40.90082 42.50905 33176 ft 524 kts 95°
2026-05-07 14:07 40.89633 42.60466 33197 ft 524 kts 95°
2026-05-07 14:08 40.89173 42.70094 33196 ft 525 kts 95°
2026-05-07 14:08 40.88703 42.79736 33195 ft 526 kts 95°
2026-05-07 14:09 40.88225 42.89381 33198 ft 526 kts 96°
2026-05-07 14:09 40.87738 42.99041 33179 ft 527 kts 96°
2026-05-07 14:10 40.87242 43.08726 33193 ft 529 kts 96°
2026-05-07 14:10 40.86736 43.18442 33181 ft 530 kts 96°
2026-05-07 14:11 40.86221 43.28166 33173 ft 531 kts 96°
2026-05-07 14:11 40.85698 43.37902 33177 ft 532 kts 96°
2026-05-07 14:12 40.85166 43.47647 33165 ft 532 kts 97°
2026-05-07 14:12 40.84626 43.57389 33161 ft 531 kts 97°
2026-05-07 14:13 40.84080 43.67111 33158 ft 531 kts 97°
2026-05-07 14:13 40.83643 43.76838 33134 ft 531 kts 95°
2026-05-07 14:14 40.83371 43.86580 33158 ft 532 kts 95°
2026-05-07 14:14 40.83093 43.96276 33166 ft 533 kts 95°
2026-05-07 14:15 40.82772 44.06053 33164 ft 534 kts 95°
2026-05-07 14:15 40.82428 44.15850 33159 ft 534 kts 96°
2026-05-07 14:16 40.82073 44.25657 33167 ft 535 kts 96°
2026-05-07 14:16 40.81712 44.35494 33159 ft 537 kts 96°
2026-05-07 14:17 40.81343 44.45362 33141 ft 539 kts 96°
2026-05-07 14:17 40.80967 44.55249 33153 ft 539 kts 96°
2026-05-07 14:18 40.80581 44.65151 33115 ft 541 kts 96°
2026-05-07 14:18 40.80181 44.75062 33137 ft 541 kts 97°
2026-05-07 14:19 40.79777 44.84930 33131 ft 543 kts 96°
2026-05-07 14:19 40.79364 44.94875 33141 ft 542 kts 97°
2026-05-07 14:20 40.78940 45.04819 33114 ft 543 kts 97°
2026-05-07 14:20 40.78510 45.14774 33123 ft 543 kts 97°
2026-05-07 14:21 40.78066 45.24726 33134 ft 543 kts 97°
2026-05-07 14:21 40.77617 45.34673 33117 ft 544 kts 97°
2026-05-07 14:22 40.77164 45.44628 33118 ft 543 kts 97°
2026-05-07 14:22 40.77228 45.54627 33120 ft 549 kts 86°
2026-05-07 14:23 40.78302 45.64633 33098 ft 551 kts 84°
2026-05-07 14:23 40.79409 45.74633 33105 ft 551 kts 85°
2026-05-07 14:24 40.80452 45.84653 33092 ft 551 kts 85°
2026-05-07 14:24 40.81457 45.94679 33093 ft 551 kts 85°
2026-05-07 14:25 40.82453 46.04711 33087 ft 551 kts 85°
2026-05-07 14:25 40.83448 46.14754 33080 ft 552 kts 85°
2026-05-07 14:26 40.84437 46.24808 33072 ft 552 kts 86°
2026-05-07 14:26 40.85416 46.34878 33081 ft 553 kts 86°
2026-05-07 14:27 40.86383 46.44901 33075 ft 554 kts 86°
2026-05-07 14:27 40.87348 46.55011 33079 ft 555 kts 86°
2026-05-07 14:28 40.88306 46.65120 33090 ft 555 kts 86°
2026-05-07 14:28 40.89202 46.75263 33078 ft 554 kts 90°
2026-05-07 14:29 40.88691 46.85314 33086 ft 546 kts 105°
2026-05-07 14:29 40.86564 46.94836 33089 ft 537 kts 116°
2026-05-07 14:30 40.83890 47.04068 33055 ft 539 kts 116°
2026-05-07 14:30 40.81307 47.13392 33077 ft 541 kts 116°
2026-05-07 14:31 40.78731 47.22728 33086 ft 542 kts 116°
2026-05-07 14:31 40.76126 47.32078 33059 ft 544 kts 116°
2026-05-07 14:32 40.73509 47.41453 33066 ft 545 kts 116°
2026-05-07 14:32 40.70866 47.50833 33068 ft 546 kts 116°
2026-05-07 14:33 40.68211 47.60214 33073 ft 547 kts 116°
2026-05-07 14:33 40.65565 47.69547 33068 ft 547 kts 116°
2026-05-07 14:34 40.62899 47.78920 33069 ft 546 kts 116°
2026-05-07 14:34 40.60256 47.88283 33070 ft 547 kts 114°
2026-05-07 14:35 40.58660 47.98163 33051 ft 558 kts 101°
2026-05-07 14:35 40.58544 48.08434 33070 ft 565 kts 90°
2026-05-07 14:36 40.58983 48.18760 33065 ft 565 kts 91°
2026-05-07 14:36 40.59260 48.29106 33076 ft 566 kts 92°
2026-05-07 14:37 40.59466 48.37705 33087 ft 567 kts 92°
2026-05-07 14:37 40.59851 48.53273 33069 ft 567 kts 92°
2026-05-07 14:38 40.60106 48.63648 33077 ft 568 kts 92°
2026-05-07 14:38 40.60350 48.74051 33076 ft 569 kts 92°
2026-05-07 14:39 40.60583 48.84455 33083 ft 569 kts 92°
2026-05-07 14:39 40.60808 48.94870 33083 ft 569 kts 92°
2026-05-07 14:40 40.61023 49.05283 33077 ft 569 kts 92°
2026-05-07 14:40 40.61228 49.15636 33074 ft 570 kts 92°
2026-05-07 14:41 40.61529 49.26073 33073 ft 572 kts 90°
2026-05-07 14:41 40.62181 49.36524 33086 ft 574 kts 88°
2026-05-07 14:42 40.62869 49.46986 33071 ft 574 kts 89°
2026-05-07 14:42 40.63481 49.57458 33058 ft 573 kts 89°
2026-05-07 14:43 40.64048 49.67940 33072 ft 574 kts 90°
2026-05-07 14:43 40.64604 49.78433 33085 ft 575 kts 90°
2026-05-07 14:44 40.65159 49.88938 33074 ft 575 kts 90°
2026-05-07 14:44 40.65706 49.99439 33074 ft 575 kts 90°
2026-05-07 14:45 40.66241 50.09882 33077 ft 575 kts 90°
2026-05-07 14:45 40.66769 50.20387 33082 ft 574 kts 90°
2026-05-07 14:46 40.67286 50.30900 33074 ft 575 kts 90°
2026-05-07 14:46 40.67797 50.41426 33074 ft 576 kts 90°
2026-05-07 14:47 40.68297 50.51957 33079 ft 576 kts 90°
2026-05-07 14:47 40.68789 50.62495 33086 ft 577 kts 90°
2026-05-07 14:48 40.69272 50.73052 33070 ft 577 kts 90°
2026-05-07 14:48 40.69746 50.83616 33091 ft 577 kts 90°
2026-05-07 14:49 40.70210 50.94167 33091 ft 577 kts 90°
2026-05-07 14:49 40.70665 51.04739 33098 ft 578 kts 90°
2026-05-07 14:50 40.71110 51.15307 33101 ft 578 kts 90°
2026-05-07 14:50 40.71546 51.25887 33103 ft 578 kts 90°
2026-05-07 14:51 40.71973 51.36468 33098 ft 578 kts 90°
2026-05-07 14:51 40.72404 51.47060 33102 ft 580 kts 89°
2026-05-07 14:52 40.73619 51.57608 33105 ft 584 kts 79°
2026-05-07 14:52 40.75428 51.68049 33114 ft 585 kts 79°
2026-05-07 14:53 40.77212 51.78521 33107 ft 585 kts 79°
2026-05-07 14:53 40.78918 51.88950 33101 ft 585 kts 80°
2026-05-07 14:54 40.80607 51.99458 33095 ft 585 kts 80°
2026-05-07 14:54 40.82290 52.09960 33064 ft 585 kts 80°
2026-05-07 14:55 40.83966 52.20450 33102 ft 584 kts 80°
2026-05-07 14:55 40.85635 52.30957 33105 ft 584 kts 80°
2026-05-07 14:56 40.87294 52.41471 33094 ft 585 kts 80°
2026-05-07 14:56 40.88944 52.51990 33109 ft 584 kts 80°
2026-05-07 14:57 40.90436 52.62535 33092 ft 582 kts 86°
2026-05-07 14:57 40.90952 52.73179 33110 ft 579 kts 91°
2026-05-07 14:58 40.91320 52.83811 33097 ft 579 kts 90°
2026-05-07 14:58 40.91754 52.94452 33090 ft 579 kts 90°
2026-05-07 14:59 40.92210 53.05087 33098 ft 580 kts 90°
2026-05-07 14:59 40.92644 53.15742 33096 ft 580 kts 90°
2026-05-07 15:00 40.93048 53.26392 33096 ft 580 kts 90°
2026-05-07 15:00 40.93436 53.36976 33091 ft 580 kts 90°
2026-05-07 15:01 40.93819 53.47627 33094 ft 580 kts 90°
2026-05-07 15:01 40.94196 53.58298 33087 ft 580 kts 91°
2026-05-07 15:02 40.94563 53.68953 33087 ft 579 kts 91°
2026-05-07 15:02 40.94919 53.79608 33089 ft 579 kts 91°
2026-05-07 15:03 40.95265 53.90247 33078 ft 579 kts 91°
2026-05-07 15:03 40.95601 54.00880 33083 ft 578 kts 91°
2026-05-07 15:04 40.95927 54.11511 33053 ft 578 kts 91°
2026-05-07 15:04 40.96243 54.22131 33081 ft 578 kts 91°
2026-05-07 15:05 40.96549 54.32765 33083 ft 578 kts 91°
2026-05-07 15:05 40.96845 54.43394 33084 ft 578 kts 91°
2026-05-07 15:06 40.97132 54.54025 33082 ft 578 kts 91°
2026-05-07 15:06 40.97410 54.64668 33080 ft 578 kts 91°
2026-05-07 15:07 40.97677 54.75304 33045 ft 578 kts 91°
2026-05-07 15:07 40.97934 54.85864 33079 ft 577 kts 91°
2026-05-07 15:08 40.98179 54.96487 33072 ft 577 kts 91°
2026-05-07 15:08 40.98408 55.07094 33076 ft 576 kts 92°
2026-05-07 15:09 40.98628 55.17697 33067 ft 576 kts 92°
2026-05-07 15:09 40.98840 55.28291 33065 ft 576 kts 92°
2026-05-07 15:10 40.99041 55.38884 33048 ft 575 kts 92°
2026-05-07 15:10 40.99232 55.49384 33061 ft 574 kts 92°
2026-05-07 15:11 40.99414 55.59937 33050 ft 573 kts 92°
2026-05-07 15:11 40.99587 55.70481 33050 ft 573 kts 92°
2026-05-07 15:12 40.99751 55.81028 33053 ft 573 kts 92°
2026-05-07 15:12 40.99919 55.91570 33040 ft 573 kts 92°
2026-05-07 15:13 41.00083 56.02104 33049 ft 572 kts 92°
2026-05-07 15:13 41.00235 56.12628 33040 ft 572 kts 92°
2026-05-07 15:14 41.00376 56.23147 33032 ft 571 kts 92°
2026-05-07 15:14 41.00507 56.33661 33030 ft 571 kts 92°
2026-05-07 15:15 41.00630 56.44162 33035 ft 571 kts 92°
2026-05-07 15:15 41.01050 56.54659 33014 ft 574 kts 84°
2026-05-07 15:16 41.02332 56.65104 33001 ft 574 kts 82°
2026-05-07 15:16 41.03644 56.75454 33020 ft 573 kts 83°
2026-05-07 15:17 41.04903 56.85881 33027 ft 573 kts 83°
2026-05-07 15:17 41.06119 56.96308 33021 ft 572 kts 83°
2026-05-07 15:18 41.07323 57.06733 33024 ft 572 kts 83°
2026-05-07 15:18 41.08522 57.17160 33021 ft 572 kts 83°
2026-05-07 15:19 41.09712 57.27578 33023 ft 572 kts 83°
2026-05-07 15:19 41.10894 57.38001 33023 ft 571 kts 83°
2026-05-07 15:20 41.12066 57.48426 33018 ft 571 kts 83°
2026-05-07 15:20 41.13221 57.58789 33018 ft 571 kts 84°
2026-05-07 15:21 41.14371 57.69195 33019 ft 570 kts 83°
2026-05-07 15:21 41.15511 57.79603 33020 ft 569 kts 84°
2026-05-07 15:22 41.16640 57.89997 33016 ft 569 kts 84°
2026-05-07 15:22 41.17760 58.00394 33017 ft 569 kts 84°
2026-05-07 15:23 41.18871 58.10789 33019 ft 569 kts 84°
2026-05-07 15:23 41.19969 58.21197 33022 ft 569 kts 84°
2026-05-07 15:24 41.21056 58.31605 33011 ft 569 kts 84°
2026-05-07 15:24 41.22133 58.42006 33011 ft 568 kts 84°
2026-05-07 15:25 41.23201 58.52398 33011 ft 568 kts 84°
2026-05-07 15:25 41.24249 58.62705 33007 ft 565 kts 84°
2026-05-07 15:26 41.25292 58.73042 33003 ft 563 kts 84°
2026-05-07 15:26 41.26322 58.83346 33010 ft 562 kts 84°
2026-05-07 15:27 41.27339 58.93628 33011 ft 561 kts 84°
2026-05-07 15:27 41.28347 59.03905 33009 ft 561 kts 84°
2026-05-07 15:28 41.29178 59.12456 33005 ft 561 kts 84°
2026-05-07 15:28 41.30169 59.22739 33000 ft 561 kts 84°
2026-05-07 15:29 41.31152 59.33031 32998 ft 561 kts 85°
2026-05-07 15:29 41.32125 59.43326 32992 ft 561 kts 85°
2026-05-07 15:30 41.33090 59.53623 32970 ft 561 kts 85°
2026-05-07 15:30 41.34025 59.63914 32987 ft 559 kts 87°
2026-05-07 15:31 41.34092 59.74202 32976 ft 553 kts 97°
2026-05-07 15:31 41.33518 59.84395 32974 ft 552 kts 97°
2026-05-07 15:32 41.33008 59.94580 32979 ft 551 kts 96°
2026-05-07 15:32 41.32540 60.04694 32975 ft 551 kts 96°
2026-05-07 15:33 41.32057 60.14864 32970 ft 550 kts 96°
2026-05-07 15:33 41.31570 60.25012 32964 ft 548 kts 96°
2026-05-07 15:34 41.31078 60.35115 32963 ft 547 kts 96°
2026-05-07 15:34 41.30752 60.45223 32961 ft 548 kts 90°
2026-05-07 15:35 41.31290 60.55349 32961 ft 548 kts 87°
2026-05-07 15:35 41.31898 60.65460 32950 ft 548 kts 87°
2026-05-07 15:36 41.32448 60.75559 32952 ft 547 kts 88°
2026-05-07 15:36 41.32958 60.85597 32943 ft 547 kts 88°
2026-05-07 15:37 41.33460 60.95693 32940 ft 547 kts 88°
2026-05-07 15:37 41.33957 61.05781 32932 ft 546 kts 88°
2026-05-07 15:38 41.34446 61.15863 32930 ft 546 kts 88°
2026-05-07 15:38 41.34926 61.25937 32930 ft 546 kts 88°
2026-05-07 15:39 41.35398 61.36031 32929 ft 546 kts 88°
2026-05-07 15:39 41.35861 61.46123 32931 ft 547 kts 88°
2026-05-07 15:40 41.36312 61.56236 32926 ft 547 kts 89°
2026-05-07 15:40 41.36754 61.66353 32929 ft 547 kts 89°
2026-05-07 15:41 41.37188 61.76472 32911 ft 547 kts 89°
2026-05-07 15:41 41.37613 61.86583 32919 ft 547 kts 89°
2026-05-07 15:42 41.38029 61.96690 32912 ft 546 kts 89°
2026-05-07 15:42 41.38435 62.06789 32904 ft 546 kts 89°
2026-05-07 15:43 41.38830 62.16809 32899 ft 545 kts 89°
2026-05-07 15:43 41.39218 62.26894 32907 ft 544 kts 89°
2026-05-07 15:44 41.39597 62.36961 32893 ft 543 kts 89°
2026-05-07 15:44 41.39967 62.47008 32893 ft 542 kts 89°
2026-05-07 15:45 41.40341 62.57034 32888 ft 542 kts 89°
2026-05-07 15:45 41.40741 62.67059 32882 ft 541 kts 89°
2026-05-07 15:46 41.41327 62.82074 32889 ft 541 kts 89°
2026-05-07 15:47 41.41699 62.92035 32885 ft 541 kts 89°
2026-05-07 15:47 41.42063 63.02047 32880 ft 541 kts 89°
2026-05-07 15:48 41.42419 63.12064 32888 ft 541 kts 89°
2026-05-07 15:48 41.42766 63.22077 32873 ft 541 kts 89°
2026-05-07 15:49 41.43105 63.32083 32875 ft 540 kts 89°
2026-05-07 15:49 41.43435 63.42082 32872 ft 540 kts 89°
2026-05-07 15:50 41.43754 63.52056 32863 ft 538 kts 89°
2026-05-07 15:50 41.44066 63.61998 32867 ft 536 kts 89°
2026-05-07 15:51 41.44363 63.71918 32866 ft 535 kts 89°
2026-05-07 15:51 41.44632 63.81733 32871 ft 532 kts 90°
2026-05-07 15:52 41.44891 63.91578 32862 ft 531 kts 90°
2026-05-07 15:52 41.45144 64.01400 32865 ft 530 kts 90°
2026-05-07 15:53 41.45389 64.11206 32869 ft 529 kts 90°
2026-05-07 15:53 41.45627 64.21024 32876 ft 530 kts 90°
2026-05-07 15:54 41.45856 64.30842 32882 ft 530 kts 90°
2026-05-07 15:54 41.46076 64.40671 32880 ft 529 kts 90°
2026-05-07 15:55 41.46289 64.50468 32883 ft 528 kts 90°
2026-05-07 15:55 41.46492 64.60232 32887 ft 526 kts 90°
2026-05-07 15:56 41.46686 64.69974 32885 ft 525 kts 90°
2026-05-07 15:56 41.46872 64.79703 32885 ft 525 kts 90°
2026-05-07 15:57 41.47048 64.89363 32886 ft 525 kts 90°
2026-05-07 15:57 41.47218 64.99089 32878 ft 525 kts 90°
2026-05-07 15:58 41.47379 65.08836 32887 ft 526 kts 90°
2026-05-07 15:58 41.47533 65.18605 32885 ft 527 kts 90°
2026-05-07 15:59 41.47678 65.28376 32871 ft 528 kts 90°
2026-05-07 15:59 41.47815 65.38171 32895 ft 528 kts 90°
2026-05-07 16:00 41.47945 65.47977 32882 ft 529 kts 90°
2026-05-07 16:00 41.48066 65.57783 32897 ft 529 kts 90°
2026-05-07 16:01 41.48179 65.67578 32900 ft 528 kts 90°
2026-05-07 16:01 41.48284 65.77360 32897 ft 527 kts 90°
2026-05-07 16:02 41.48347 65.87118 32891 ft 526 kts 91°
2026-05-07 16:02 41.48358 65.96858 32896 ft 525 kts 91°
2026-05-07 16:03 41.48364 66.06584 32896 ft 525 kts 91°
2026-05-07 16:03 41.48370 66.16320 32908 ft 525 kts 91°
2026-05-07 16:04 41.48370 66.26051 32901 ft 525 kts 91°
2026-05-07 16:04 41.48361 66.35767 32907 ft 523 kts 91°
2026-05-07 16:05 41.48344 66.45465 32907 ft 522 kts 91°
2026-05-07 16:05 41.48320 66.55138 32917 ft 521 kts 91°
2026-05-07 16:06 41.47851 66.64758 32901 ft 520 kts 101°
2026-05-07 16:06 41.46436 66.74193 32919 ft 519 kts 103°
2026-05-07 16:07 41.44988 66.83633 32918 ft 520 kts 102°
2026-05-07 16:07 41.43582 66.93035 32915 ft 520 kts 102°
2026-05-07 16:08 41.42182 67.02492 32923 ft 520 kts 102°
2026-05-07 16:08 41.40776 67.11949 32923 ft 520 kts 102°
2026-05-07 16:09 41.39361 67.21394 32929 ft 520 kts 102°
2026-05-07 16:09 41.37935 67.30835 32940 ft 521 kts 102°
2026-05-07 16:10 41.36499 67.40296 32940 ft 521 kts 102°
2026-05-07 16:10 41.35055 67.49752 32946 ft 521 kts 102°
2026-05-07 16:11 41.33605 67.59198 32935 ft 521 kts 102°
2026-05-07 16:11 41.32144 67.68654 32946 ft 521 kts 102°
2026-05-07 16:12 41.30679 67.78090 32942 ft 521 kts 102°
2026-05-07 16:12 41.29206 67.87527 32945 ft 521 kts 102°
2026-05-07 16:13 41.27890 67.97034 33195 ft 523 kts 97°
2026-05-07 16:13 41.27474 68.01821 33465 ft 521 kts 96°
2026-05-07 16:13 41.27079 68.06595 33776 ft 518 kts 96°
2026-05-07 16:13 41.26685 68.11354 34039 ft 517 kts 97°
2026-05-07 16:14 41.26283 68.16093 34199 ft 517 kts 97°
2026-05-07 16:14 41.25869 68.20843 34352 ft 517 kts 97°
2026-05-07 16:14 41.25453 68.25532 34533 ft 517 kts 97°
2026-05-07 16:14 41.25027 68.30256 34785 ft 514 kts 97°
2026-05-07 16:15 41.24599 68.34964 34881 ft 514 kts 97°
2026-05-07 16:15 41.23740 68.44361 34946 ft 510 kts 97°
2026-05-07 16:16 41.22880 68.53708 34950 ft 509 kts 98°
2026-05-07 16:16 41.22016 68.63031 34956 ft 509 kts 98°
2026-05-07 16:17 41.21143 68.72358 34955 ft 509 kts 98°
2026-05-07 16:17 41.20263 68.81691 34961 ft 510 kts 98°
2026-05-07 16:18 41.19378 68.91037 34971 ft 511 kts 97°
2026-05-07 16:18 41.19051 68.98862 34989 ft 511 kts 92°
2026-05-07 16:19 41.18867 69.08311 34987 ft 512 kts 92°
2026-05-07 16:19 41.18629 69.17775 34993 ft 513 kts 92°
2026-05-07 16:20 41.18164 69.27219 34996 ft 513 kts 96°
2026-05-07 16:20 41.17370 69.36630 34997 ft 513 kts 97°
2026-05-07 16:21 41.16558 69.46039 35004 ft 513 kts 97°
2026-05-07 16:21 41.15763 69.55467 35009 ft 514 kts 97°
2026-05-07 16:22 41.14969 69.64911 35025 ft 515 kts 97°
2026-05-07 16:22 41.14167 69.74374 35054 ft 517 kts 97°
2026-05-07 16:23 41.13352 69.83867 35074 ft 518 kts 97°
2026-05-07 16:23 41.12528 69.93374 35102 ft 519 kts 97°
2026-05-07 16:24 41.11701 70.02815 35096 ft 519 kts 97°
2026-05-07 16:24 41.10861 70.12328 35122 ft 519 kts 97°
2026-05-07 16:25 41.10063 70.21842 35134 ft 519 kts 94°
2026-05-07 16:25 41.10221 70.31387 35120 ft 518 kts 83°
2026-05-07 16:26 41.11017 70.40889 35133 ft 519 kts 84°
2026-05-07 16:26 41.11767 70.50402 35139 ft 519 kts 84°
2026-05-07 16:27 41.12464 70.59925 35139 ft 519 kts 84°
2026-05-07 16:27 41.13149 70.69396 35142 ft 519 kts 84°
2026-05-07 16:28 41.13824 70.78934 35110 ft 520 kts 84°
2026-05-07 16:28 41.14475 70.88480 35081 ft 519 kts 84°
2026-05-07 16:29 41.15114 70.98007 35088 ft 518 kts 84°
2026-05-07 16:29 41.15754 71.07527 35066 ft 517 kts 84°
2026-05-07 16:30 41.16386 71.17040 35049 ft 517 kts 84°
2026-05-07 16:30 41.17006 71.26553 35027 ft 518 kts 84°
2026-05-07 16:31 41.17619 71.36077 35012 ft 518 kts 84°
2026-05-07 16:31 41.18222 71.45546 35003 ft 518 kts 84°
2026-05-07 16:32 41.18821 71.55086 34991 ft 519 kts 84°
2026-05-07 16:32 41.19412 71.64626 34992 ft 519 kts 84°
2026-05-07 16:33 41.19996 71.74167 34998 ft 518 kts 84°
2026-05-07 16:33 41.20569 71.83692 35012 ft 517 kts 84°
2026-05-07 16:34 41.21122 71.93221 35038 ft 517 kts 84°
2026-05-07 16:34 41.21667 72.02732 35042 ft 516 kts 84°
2026-05-07 16:35 41.22205 72.12241 35060 ft 516 kts 84°
2026-05-07 16:35 41.22737 72.21738 35061 ft 516 kts 84°
2026-05-07 16:36 41.23279 72.31228 35062 ft 515 kts 84°
2026-05-07 16:36 41.23825 72.40725 35078 ft 515 kts 84°
2026-05-07 16:37 41.24359 72.50210 35092 ft 515 kts 84°
2026-05-07 16:37 41.24881 72.59637 35108 ft 515 kts 84°
2026-05-07 16:38 41.25387 72.69127 35133 ft 514 kts 85°
2026-05-07 16:38 41.25874 72.78578 35122 ft 512 kts 85°
2026-05-07 16:39 41.26354 72.88014 35139 ft 511 kts 85°
2026-05-07 16:39 41.26829 72.97447 35159 ft 510 kts 85°
2026-05-07 16:40 41.27294 73.06849 35154 ft 509 kts 85°
2026-05-07 16:40 41.27751 73.16246 35162 ft 509 kts 85°
2026-05-07 16:41 41.28201 73.25643 35170 ft 509 kts 85°
2026-05-07 16:41 41.28642 73.35031 35187 ft 509 kts 85°
2026-05-07 16:42 41.29077 73.44434 35188 ft 509 kts 85°
2026-05-07 16:42 41.29503 73.53822 35190 ft 509 kts 85°
2026-05-07 16:43 41.29922 73.63216 35195 ft 508 kts 85°
2026-05-07 16:43 41.30328 73.72545 35186 ft 509 kts 85°
2026-05-07 16:44 41.30734 73.81941 35187 ft 508 kts 85°
2026-05-07 16:44 41.31130 73.91326 35195 ft 508 kts 85°
2026-05-07 16:45 41.31519 74.00726 35201 ft 508 kts 85°
2026-05-07 16:45 41.32105 74.10099 35192 ft 509 kts 82°
2026-05-07 16:46 41.32842 74.19474 35192 ft 510 kts 82°
2026-05-07 16:46 41.33545 74.28864 35193 ft 511 kts 83°
2026-05-07 16:47 41.34208 74.38286 35195 ft 511 kts 83°
2026-05-07 16:47 41.34853 74.47706 35187 ft 511 kts 83°
2026-05-07 16:48 41.35487 74.57050 35177 ft 509 kts 83°
2026-05-07 16:48 41.36121 74.66416 35173 ft 508 kts 83°
2026-05-07 16:49 41.36743 74.75766 35176 ft 507 kts 83°
2026-05-07 16:49 41.37358 74.85108 35171 ft 506 kts 83°
2026-05-07 16:50 41.37965 74.94445 35172 ft 506 kts 83°
2026-05-07 16:50 41.38567 75.03799 35176 ft 507 kts 83°
2026-05-07 16:51 41.39163 75.13166 35178 ft 508 kts 83°
2026-05-07 16:51 41.39753 75.22544 35173 ft 508 kts 83°
2026-05-07 16:52 41.40333 75.31918 35175 ft 507 kts 83°
2026-05-07 16:52 41.40902 75.41225 35166 ft 507 kts 83°
2026-05-07 16:53 41.41467 75.50591 35164 ft 508 kts 83°
2026-05-07 16:53 41.42026 75.59973 35158 ft 508 kts 83°
2026-05-07 16:54 41.42577 75.69350 35159 ft 508 kts 83°
2026-05-07 16:54 41.43121 75.78739 35164 ft 508 kts 83°
2026-05-07 16:55 41.43661 75.88138 35138 ft 509 kts 83°
2026-05-07 16:55 41.44194 75.97549 35170 ft 508 kts 83°
2026-05-07 16:56 41.44719 76.06949 35165 ft 508 kts 83°
2026-05-07 16:56 41.45491 76.21030 35183 ft 508 kts 83°
2026-05-07 16:57 41.45996 76.30416 35181 ft 507 kts 83°
2026-05-07 16:57 41.46492 76.39792 35208 ft 507 kts 83°
2026-05-07 16:58 41.46981 76.49180 35190 ft 507 kts 83°
2026-05-07 16:58 41.47461 76.58555 35225 ft 506 kts 83°
2026-05-07 16:59 41.47934 76.67911 35223 ft 504 kts 83°
2026-05-07 16:59 41.48399 76.77231 35221 ft 503 kts 83°
2026-05-07 17:00 41.48849 76.86473 35252 ft 503 kts 83°
2026-05-07 17:00 41.49296 76.95784 35271 ft 503 kts 84°
2026-05-07 17:01 41.49738 77.05108 35255 ft 504 kts 84°
2026-05-07 17:01 41.50172 77.14440 35285 ft 504 kts 84°
2026-05-07 17:02 41.50598 77.23796 35299 ft 505 kts 85°
2026-05-07 17:02 41.51017 77.33158 35288 ft 506 kts 85°
2026-05-07 17:03 41.51429 77.42534 35299 ft 506 kts 85°
2026-05-07 17:03 41.51834 77.51910 35298 ft 506 kts 85°
2026-05-07 17:04 41.52230 77.61272 35315 ft 504 kts 85°
2026-05-07 17:04 41.52617 77.70587 35299 ft 502 kts 85°
2026-05-07 17:05 41.52994 77.79863 35304 ft 499 kts 85°
2026-05-07 17:05 41.53363 77.89099 35300 ft 498 kts 85°
2026-05-07 17:06 41.53722 77.98268 35310 ft 497 kts 85°
2026-05-07 17:06 41.54075 78.07478 35298 ft 497 kts 85°
2026-05-07 17:07 41.54422 78.16693 35300 ft 497 kts 85°
2026-05-07 17:07 41.54759 78.25904 35301 ft 497 kts 85°
2026-05-07 17:08 41.55090 78.35144 35297 ft 499 kts 85°
2026-05-07 17:08 41.55361 78.42829 35300 ft 499 kts 85°
2026-05-07 17:09 41.55680 78.52102 35293 ft 500 kts 85°
2026-05-07 17:09 41.56043 78.62956 35293 ft 501 kts 86°
2026-05-07 17:10 41.56299 78.70679 35287 ft 501 kts 85°
2026-05-07 17:10 41.56502 78.79970 35260 ft 501 kts 90°
2026-05-07 17:11 41.55624 78.89215 35242 ft 504 kts 102°
2026-05-07 17:11 41.53813 78.98244 35250 ft 502 kts 103°
2026-05-07 17:12 41.51962 79.07234 35244 ft 503 kts 103°
2026-05-07 17:12 41.50151 79.16181 35173 ft 503 kts 103°
2026-05-07 17:13 41.48345 79.25190 35170 ft 503 kts 103°
2026-05-07 17:13 41.46532 79.34205 35147 ft 503 kts 102°
2026-05-07 17:14 41.44708 79.43219 35114 ft 504 kts 102°
2026-05-07 17:14 41.42878 79.52213 35102 ft 502 kts 102°
2026-05-07 17:15 41.41047 79.61181 35087 ft 500 kts 102°
2026-05-07 17:15 41.39215 79.70111 35077 ft 499 kts 102°
2026-05-07 17:16 41.37379 79.79020 35067 ft 499 kts 103°
2026-05-07 17:16 41.35540 79.87912 35075 ft 498 kts 102°
2026-05-07 17:17 41.33697 79.96785 35052 ft 497 kts 103°
2026-05-07 17:17 41.31851 80.05632 35051 ft 496 kts 102°
2026-05-07 17:18 41.29998 80.14476 35053 ft 496 kts 103°
2026-05-07 17:18 41.28142 80.23303 35060 ft 496 kts 103°
2026-05-07 17:19 41.26293 80.32058 35042 ft 495 kts 103°
2026-05-07 17:19 41.24414 80.40860 35044 ft 495 kts 103°
2026-05-07 17:20 41.22520 80.49652 35041 ft 495 kts 103°
2026-05-07 17:20 41.20625 80.58429 35046 ft 494 kts 103°
2026-05-07 17:21 41.18724 80.67199 35040 ft 494 kts 103°
2026-05-07 17:21 41.16819 80.75960 35040 ft 494 kts 103°
2026-05-07 17:22 41.14907 80.84718 35035 ft 494 kts 103°
2026-05-07 17:22 41.12988 80.93472 35049 ft 494 kts 103°
2026-05-07 17:23 41.11061 81.02225 35035 ft 495 kts 103°
2026-05-07 17:23 41.09125 81.10984 35033 ft 495 kts 104°
2026-05-07 17:24 41.07184 81.19734 35035 ft 495 kts 104°
2026-05-07 17:24 41.05236 81.28478 35048 ft 495 kts 104°
2026-05-07 17:25 41.03279 81.37227 35033 ft 495 kts 104°
2026-05-07 17:25 41.01315 81.45972 35033 ft 495 kts 104°
2026-05-07 17:26 40.99357 81.54661 35034 ft 496 kts 104°
2026-05-07 17:26 40.97380 81.63401 35032 ft 496 kts 104°
2026-05-07 17:27 40.95485 81.72178 35028 ft 496 kts 102°
2026-05-07 17:27 40.93847 81.81028 35037 ft 495 kts 101°
2026-05-07 17:28 40.92228 81.89890 35042 ft 495 kts 102°
2026-05-07 17:28 40.90566 81.98729 35029 ft 495 kts 102°
2026-05-07 17:29 40.88874 82.07554 35030 ft 496 kts 102°
2026-05-07 17:29 40.87171 82.16373 35035 ft 495 kts 102°
2026-05-07 17:30 40.85463 82.25193 35048 ft 495 kts 102°
2026-05-07 17:30 40.83750 82.34007 35049 ft 495 kts 102°
2026-05-07 17:31 40.82029 82.42821 35044 ft 496 kts 102°
2026-05-07 17:31 40.80303 82.51625 35041 ft 496 kts 102°
2026-05-07 17:32 40.78580 82.60376 35038 ft 496 kts 102°
2026-05-07 17:32 40.76837 82.69184 35041 ft 496 kts 102°
2026-05-07 17:33 40.75090 82.77979 35043 ft 496 kts 102°
2026-05-07 17:33 40.73334 82.86781 35046 ft 496 kts 103°
2026-05-07 17:34 40.71571 82.95580 35044 ft 497 kts 103°
2026-05-07 17:34 40.69801 83.04373 35045 ft 497 kts 103°
2026-05-07 17:35 40.68022 83.13178 35047 ft 497 kts 103°
2026-05-07 17:35 40.66237 83.21972 35053 ft 497 kts 103°
2026-05-07 17:36 40.64443 83.30770 35051 ft 497 kts 103°
2026-05-07 17:36 40.62645 83.39553 35045 ft 497 kts 103°
2026-05-07 17:37 40.60840 83.48332 35049 ft 497 kts 103°
2026-05-07 17:37 40.59030 83.57103 35055 ft 497 kts 103°
2026-05-07 17:38 40.57214 83.65863 35048 ft 496 kts 103°
2026-05-07 17:38 40.55403 83.74562 35050 ft 496 kts 103°
2026-05-07 17:39 40.53576 83.83307 35050 ft 496 kts 103°
2026-05-07 17:39 40.51742 83.92048 35056 ft 496 kts 103°
2026-05-07 17:40 40.49935 84.00810 35051 ft 497 kts 103°
2026-05-07 17:40 40.48167 84.09582 35055 ft 497 kts 103°
2026-05-07 17:41 40.46391 84.18359 35055 ft 497 kts 103°
2026-05-07 17:41 40.44601 84.27132 35055 ft 498 kts 103°
2026-05-07 17:42 40.42799 84.35905 35055 ft 498 kts 103°
2026-05-07 17:42 40.40989 84.44681 35056 ft 498 kts 103°
2026-05-07 17:43 40.39169 84.53468 35060 ft 499 kts 103°
2026-05-07 17:43 40.37344 84.62247 35058 ft 499 kts 103°
2026-05-07 17:44 40.35524 84.70962 35068 ft 499 kts 104°
2026-05-07 17:44 40.33685 84.79734 35062 ft 499 kts 104°
2026-05-07 17:45 40.31840 84.88496 35054 ft 499 kts 104°
2026-05-07 17:45 40.29988 84.97258 35057 ft 499 kts 104°
2026-05-07 17:46 40.28129 85.06015 35063 ft 499 kts 104°
2026-05-07 17:46 40.26261 85.14779 35058 ft 499 kts 104°
2026-05-07 17:47 40.24389 85.23524 35056 ft 499 kts 104°
2026-05-07 17:47 40.22510 85.32270 35052 ft 499 kts 104°
2026-05-07 17:48 40.20638 85.40947 35058 ft 499 kts 104°
2026-05-07 17:48 40.18746 85.49679 35067 ft 499 kts 104°
2026-05-07 17:49 40.16848 85.58406 35061 ft 499 kts 105°
2026-05-07 17:49 40.14943 85.67132 35068 ft 499 kts 105°
2026-05-07 17:50 40.13031 85.75850 35065 ft 499 kts 105°
2026-05-07 17:50 40.11110 85.84586 35062 ft 500 kts 105°
2026-05-07 17:51 40.09183 85.93311 35063 ft 500 kts 105°
2026-05-07 17:51 40.07198 86.02008 35062 ft 500 kts 108°
2026-05-07 17:52 40.04891 86.10577 35060 ft 500 kts 109°
2026-05-07 17:52 40.02541 86.19061 35061 ft 500 kts 109°
2026-05-07 17:53 40.00170 86.27659 35062 ft 501 kts 109°
2026-05-07 17:53 39.97840 86.36146 35063 ft 501 kts 109°
2026-05-07 17:54 39.95492 86.44696 35062 ft 501 kts 109°
2026-05-07 17:54 39.93138 86.53236 35052 ft 501 kts 109°
2026-05-07 17:55 39.90772 86.61784 35058 ft 501 kts 109°
2026-05-07 17:55 39.88400 86.70327 35047 ft 501 kts 109°
2026-05-07 17:56 39.86024 86.78855 35056 ft 501 kts 109°
2026-05-07 17:56 39.83639 86.87385 35044 ft 501 kts 109°
2026-05-07 17:57 39.81653 86.94468 35050 ft 501 kts 109°
2026-05-07 17:57 39.78855 87.04415 35048 ft 501 kts 109°
2026-05-07 17:58 39.76451 87.12928 35044 ft 501 kts 109°
2026-05-07 17:58 39.74045 87.21423 35046 ft 501 kts 109°
2026-05-07 17:59 39.71631 87.29920 35049 ft 501 kts 109°
2026-05-07 17:59 39.69619 87.36978 35048 ft 501 kts 109°
2026-05-07 18:00 39.66800 87.46836 35052 ft 501 kts 109°
2026-05-07 18:00 39.64366 87.55318 35053 ft 501 kts 109°
2026-05-07 18:01 39.62323 87.62415 35039 ft 501 kts 109°
2026-05-07 18:01 39.59880 87.70879 35040 ft 501 kts 109°
2026-05-07 18:02 39.56219 87.83510 35050 ft 501 kts 109°
2026-05-07 18:03 39.53761 87.91957 35044 ft 501 kts 109°
2026-05-07 18:03 39.51296 88.00402 35038 ft 501 kts 109°
2026-05-07 18:04 39.48826 88.08839 35046 ft 501 kts 109°
2026-05-07 18:04 39.46346 88.17280 35046 ft 501 kts 109°
2026-05-07 18:05 39.43861 88.25711 35041 ft 502 kts 109°
2026-05-07 18:05 39.41370 88.34137 35042 ft 502 kts 109°
2026-05-07 18:06 39.38871 88.42565 35056 ft 502 kts 110°
2026-05-07 18:06 39.36365 88.50987 35054 ft 502 kts 110°
2026-05-07 18:07 39.33852 88.59407 35053 ft 502 kts 110°
2026-05-07 18:07 39.31332 88.67823 35052 ft 503 kts 110°
2026-05-07 18:08 39.28803 88.76244 35061 ft 503 kts 110°
2026-05-07 18:08 39.26267 88.84663 35073 ft 503 kts 110°
2026-05-07 18:09 39.23743 88.93017 35074 ft 504 kts 110°
2026-05-07 18:09 39.21174 89.01492 35079 ft 504 kts 110°
2026-05-07 18:10 39.18633 89.09849 35115 ft 504 kts 110°
2026-05-07 18:10 39.16066 89.18264 35115 ft 504 kts 110°
2026-05-07 18:11 39.13496 89.26664 35133 ft 504 kts 110°
2026-05-07 18:11 39.10920 89.35060 35164 ft 504 kts 110°
2026-05-07 18:12 39.08338 89.43448 35185 ft 504 kts 110°
2026-05-07 18:12 39.05750 89.51831 35181 ft 504 kts 110°
2026-05-07 18:13 39.03155 89.60208 35206 ft 504 kts 110°
2026-05-07 18:13 39.00552 89.68590 35246 ft 504 kts 110°
2026-05-07 18:14 38.97945 89.76956 35257 ft 504 kts 110°
2026-05-07 18:14 38.95332 89.85315 35257 ft 504 kts 111°
2026-05-07 18:15 38.92711 89.93676 35294 ft 504 kts 110°
2026-05-07 18:15 38.90085 90.02029 35302 ft 505 kts 111°
2026-05-07 18:16 38.87451 90.10383 35294 ft 505 kts 111°
2026-05-07 18:16 38.84807 90.18744 35314 ft 506 kts 111°
2026-05-07 18:17 38.82156 90.27102 35327 ft 506 kts 111°
2026-05-07 18:17 38.79519 90.35393 35337 ft 506 kts 111°
2026-05-07 18:18 38.76844 90.43730 35335 ft 506 kts 111°
2026-05-07 18:18 38.74156 90.52075 35345 ft 507 kts 111°
2026-05-07 18:19 38.71461 90.60429 35346 ft 508 kts 111°
2026-05-07 18:19 38.68754 90.68797 35342 ft 509 kts 112°
2026-05-07 18:20 38.66263 90.77277 35337 ft 509 kts 109°
2026-05-07 18:20 38.63908 90.85843 35331 ft 511 kts 110°
2026-05-07 18:21 38.61539 90.94426 35324 ft 513 kts 110°
2026-05-07 18:21 38.59155 91.02961 35322 ft 514 kts 110°
2026-05-07 18:22 38.56731 91.11577 35310 ft 515 kts 110°
2026-05-07 18:22 38.54295 91.20204 35293 ft 517 kts 111°
2026-05-07 18:23 38.51844 91.28856 35289 ft 518 kts 111°
2026-05-07 18:23 38.49384 91.37514 35275 ft 520 kts 111°
2026-05-07 18:24 38.46908 91.46202 35271 ft 520 kts 111°
2026-05-07 18:24 38.44428 91.54879 35253 ft 521 kts 112°
2026-05-07 18:25 38.41934 91.63574 35264 ft 522 kts 112°
2026-05-07 18:25 38.39425 91.72287 35246 ft 525 kts 112°
2026-05-07 18:26 38.36897 91.81039 35259 ft 527 kts 112°
2026-05-07 18:26 38.34350 91.89831 35253 ft 530 kts 112°
2026-05-07 18:27 38.31805 91.98586 35236 ft 532 kts 113°
2026-05-07 18:27 38.29226 92.07436 35241 ft 534 kts 113°
2026-05-07 18:28 38.26628 92.16318 35234 ft 536 kts 114°
2026-05-07 18:28 38.24021 92.25203 35235 ft 537 kts 114°
2026-05-07 18:29 38.21403 92.34096 35221 ft 536 kts 114°
2026-05-07 18:29 38.18778 92.42985 35227 ft 536 kts 114°
2026-05-07 18:30 38.16093 92.51799 35192 ft 533 kts 119°
2026-05-07 18:30 38.12942 92.60289 35225 ft 531 kts 120°
2026-05-07 18:31 38.09744 92.68752 35228 ft 532 kts 120°
2026-05-07 18:31 38.06554 92.77239 35219 ft 534 kts 120°
2026-05-07 18:32 38.03367 92.85752 35222 ft 535 kts 120°
2026-05-07 18:32 38.00169 92.94282 35215 ft 536 kts 120°
2026-05-07 18:33 37.96976 93.02774 35216 ft 537 kts 120°
2026-05-07 18:33 37.93756 93.11305 35196 ft 538 kts 121°
2026-05-07 18:34 37.90519 93.19860 35190 ft 539 kts 121°
2026-05-07 18:34 37.87269 93.28420 35193 ft 540 kts 121°
2026-05-07 18:35 37.84009 93.36989 35191 ft 541 kts 121°
2026-05-07 18:35 37.80732 93.45576 35190 ft 542 kts 121°
2026-05-07 18:36 37.77444 93.54169 35171 ft 543 kts 121°
2026-05-07 18:36 37.74148 93.62759 35171 ft 543 kts 121°
2026-05-07 18:37 37.70849 93.71333 35167 ft 542 kts 121°
2026-05-07 18:37 37.67549 93.79887 35172 ft 541 kts 121°
2026-05-07 18:38 37.64248 93.88418 35146 ft 540 kts 121°
2026-05-07 18:38 37.60946 93.96926 35142 ft 540 kts 121°
2026-05-07 18:39 37.57638 94.05428 35148 ft 539 kts 121°
2026-05-07 18:39 37.54350 94.13854 35139 ft 539 kts 121°
2026-05-07 18:40 37.51034 94.22331 35130 ft 540 kts 121°
2026-05-07 18:40 37.47709 94.30806 35129 ft 540 kts 121°
2026-05-07 18:41 37.44377 94.39278 35140 ft 540 kts 121°
2026-05-07 18:41 37.41038 94.47746 35134 ft 540 kts 121°
2026-05-07 18:42 37.37693 94.56202 35126 ft 540 kts 121°
2026-05-07 18:42 37.34344 94.64646 35116 ft 539 kts 121°
2026-05-07 18:43 37.30994 94.73074 35119 ft 539 kts 121°
2026-05-07 18:43 37.27636 94.81500 35116 ft 540 kts 121°
2026-05-07 18:44 37.24270 94.89921 35122 ft 540 kts 121°
2026-05-07 18:44 37.20896 94.98341 35109 ft 540 kts 121°
2026-05-07 18:45 37.17516 95.06750 35120 ft 540 kts 121°
2026-05-07 18:45 37.14126 95.15165 35118 ft 540 kts 121°
2026-05-07 18:46 37.10734 95.23562 35103 ft 540 kts 121°
2026-05-07 18:46 37.07362 95.31890 35112 ft 539 kts 121°
2026-05-07 18:47 37.03969 95.40247 35113 ft 538 kts 121°
2026-05-07 18:47 37.00567 95.48607 35116 ft 539 kts 121°
2026-05-07 18:48 36.97206 95.56992 35120 ft 539 kts 120°
2026-05-07 18:48 36.93905 95.65418 35117 ft 540 kts 120°
2026-05-07 18:49 36.90595 95.73834 35110 ft 540 kts 120°
2026-05-07 18:49 36.87262 95.82247 35116 ft 541 kts 120°
2026-05-07 18:50 36.84484 95.89235 35099 ft 541 kts 120°
2026-05-07 18:50 36.80593 95.99002 35115 ft 540 kts 121°
2026-05-07 18:51 36.77252 96.07372 35114 ft 539 kts 120°
2026-05-07 18:51 36.74476 96.14388 35106 ft 538 kts 120°
2026-05-07 18:52 36.71177 96.22769 35120 ft 538 kts 120°
2026-05-07 18:52 36.67873 96.31130 35120 ft 538 kts 120°
2026-05-07 18:53 36.64558 96.39483 35117 ft 538 kts 120°
2026-05-07 18:53 36.61236 96.47828 35116 ft 538 kts 120°
2026-05-07 18:54 36.57903 96.56188 35126 ft 539 kts 121°
2026-05-07 18:54 36.54574 96.64556 35124 ft 540 kts 120°
2026-05-07 18:55 36.51294 96.72904 35129 ft 541 kts 120°
2026-05-07 18:55 36.47993 96.81301 35131 ft 541 kts 120°
2026-05-07 18:56 36.44679 96.89693 35143 ft 541 kts 120°
2026-05-07 18:56 36.41352 96.98081 35145 ft 541 kts 120°
2026-05-07 18:57 36.38021 97.06460 35145 ft 541 kts 120°
2026-05-07 18:57 36.34683 97.14836 35147 ft 541 kts 120°
2026-05-07 18:58 36.31340 97.23200 35157 ft 541 kts 120°
2026-05-07 18:58 36.27994 97.31554 35166 ft 541 kts 121°
2026-05-07 18:59 36.24643 97.39896 35166 ft 541 kts 121°
2026-05-07 18:59 36.21311 97.48172 35188 ft 540 kts 121°
2026-05-07 19:00 36.17950 97.56499 35188 ft 540 kts 121°
2026-05-07 19:00 36.14591 97.64814 35199 ft 541 kts 120°
2026-05-07 19:01 36.11317 97.73204 35205 ft 542 kts 119°
2026-05-07 19:01 36.08084 97.81643 35223 ft 543 kts 119°
2026-05-07 19:02 36.04842 97.90062 35235 ft 543 kts 120°
2026-05-07 19:02 36.01572 97.98481 35228 ft 543 kts 120°
2026-05-07 19:03 35.98289 98.06893 35239 ft 543 kts 120°
2026-05-07 19:03 35.95004 98.15292 35245 ft 543 kts 120°
2026-05-07 19:04 35.91716 98.23674 35277 ft 543 kts 120°
2026-05-07 19:04 35.88431 98.32043 35273 ft 542 kts 120°
2026-05-07 19:05 35.85155 98.40361 35258 ft 542 kts 120°
2026-05-07 19:05 35.81855 98.48710 35288 ft 542 kts 120°
2026-05-07 19:06 35.78544 98.57065 35272 ft 542 kts 120°
2026-05-07 19:06 35.73570 98.69582 35262 ft 543 kts 120°
2026-05-07 19:07 35.70245 98.77924 35277 ft 543 kts 120°
2026-05-07 19:07 35.66916 98.86254 35265 ft 543 kts 120°
2026-05-07 19:08 35.63579 98.94580 35269 ft 543 kts 121°
2026-05-07 19:08 35.60241 99.02893 35274 ft 542 kts 121°
2026-05-07 19:09 35.56891 99.11214 35274 ft 543 kts 121°
2026-05-07 19:09 35.53530 99.19537 35267 ft 544 kts 121°
2026-05-07 19:10 35.50165 99.27851 35276 ft 544 kts 121°
2026-05-07 19:10 35.46794 99.36156 35283 ft 544 kts 121°
2026-05-07 19:11 35.43412 99.44465 35275 ft 543 kts 121°
2026-05-07 19:11 35.40052 99.52705 35281 ft 544 kts 121°
2026-05-07 19:12 35.36658 99.61013 35260 ft 545 kts 121°
2026-05-07 19:12 35.33259 99.69303 35256 ft 544 kts 121°
2026-05-07 19:13 35.29864 99.77570 35259 ft 543 kts 121°
2026-05-07 19:13 35.26468 99.85812 35250 ft 541 kts 121°
2026-05-07 19:14 35.23074 99.94032 35249 ft 541 kts 121°
2026-05-07 19:14 35.19676 100.02233 35259 ft 540 kts 121°
2026-05-07 19:15 35.16277 100.10427 35253 ft 540 kts 121°
2026-05-07 19:15 35.12874 100.18609 35252 ft 540 kts 121°
2026-05-07 19:16 35.09485 100.26736 35252 ft 540 kts 121°
2026-05-07 19:16 35.06062 100.34911 35248 ft 542 kts 121°
2026-05-07 19:17 35.02637 100.43089 35243 ft 541 kts 121°
2026-05-07 19:17 34.99209 100.51256 35243 ft 540 kts 121°
2026-05-07 19:18 34.95781 100.59395 35256 ft 539 kts 121°
2026-05-07 19:18 34.92350 100.67525 35253 ft 540 kts 121°
2026-05-07 19:19 34.88905 100.75663 35271 ft 540 kts 121°
2026-05-07 19:19 34.85455 100.83794 35275 ft 540 kts 121°
2026-05-07 19:20 34.82018 100.91875 35269 ft 541 kts 121°
2026-05-07 19:20 34.78532 101.00053 35259 ft 541 kts 121°
2026-05-07 19:21 34.75084 101.08124 35268 ft 541 kts 121°
2026-05-07 19:21 34.71614 101.16229 35267 ft 539 kts 121°
2026-05-07 19:22 34.68152 101.24297 35259 ft 538 kts 121°
2026-05-07 19:22 34.64691 101.32339 35259 ft 536 kts 121°
2026-05-07 19:23 34.61230 101.40363 35259 ft 536 kts 121°
2026-05-07 19:23 34.57766 101.48372 35263 ft 536 kts 121°
2026-05-07 19:24 34.54290 101.56395 35262 ft 537 kts 122°
2026-05-07 19:24 34.50807 101.64412 35269 ft 538 kts 122°
2026-05-07 19:25 34.47313 101.72435 35252 ft 539 kts 122°
2026-05-07 19:25 34.43811 101.80463 35270 ft 539 kts 122°
2026-05-07 19:26 34.40295 101.88502 35256 ft 540 kts 122°
2026-05-07 19:26 34.36796 101.96481 35264 ft 541 kts 122°
2026-05-07 19:27 34.33262 102.04523 35256 ft 540 kts 122°
2026-05-07 19:27 34.29730 102.12544 35267 ft 540 kts 122°
2026-05-07 19:28 34.26197 102.20549 35273 ft 539 kts 122°
2026-05-07 19:28 34.22656 102.28552 35278 ft 540 kts 122°
2026-05-07 19:29 34.19109 102.36553 35260 ft 540 kts 122°
2026-05-07 19:29 34.15618 102.44602 35255 ft 541 kts 121°
2026-05-07 19:30 34.12190 102.52684 35256 ft 541 kts 121°
2026-05-07 19:30 34.08757 102.60751 35238 ft 540 kts 121°
2026-05-07 19:31 34.05333 102.68738 35236 ft 539 kts 121°
2026-05-07 19:31 34.01862 102.76802 35240 ft 538 kts 121°
2026-05-07 19:32 33.98432 102.84751 35234 ft 538 kts 121°
2026-05-07 19:32 33.94974 102.92747 35234 ft 539 kts 122°
2026-05-07 19:33 33.91506 103.00749 35223 ft 539 kts 122°
2026-05-07 19:33 33.88036 103.08741 35227 ft 539 kts 122°
2026-05-07 19:34 33.84560 103.16728 35227 ft 539 kts 122°
2026-05-07 19:34 33.81078 103.24708 35230 ft 538 kts 122°
2026-05-07 19:35 33.77590 103.32680 35232 ft 539 kts 122°
2026-05-07 19:35 33.74096 103.40658 35221 ft 540 kts 122°
2026-05-07 19:36 33.70594 103.48633 35229 ft 540 kts 122°
2026-05-07 19:36 33.67079 103.56612 35236 ft 541 kts 122°
2026-05-07 19:37 33.63558 103.64588 35240 ft 541 kts 122°
2026-05-07 19:37 33.60028 103.72566 35253 ft 541 kts 122°
2026-05-07 19:38 33.56515 103.80497 35247 ft 543 kts 122°
2026-05-07 19:38 33.52964 103.88486 35248 ft 543 kts 122°
2026-05-07 19:39 33.49404 103.96487 35236 ft 545 kts 122°
2026-05-07 19:39 33.46410 104.03195 35234 ft 545 kts 122°
2026-05-07 19:40 33.42863 104.11131 35242 ft 545 kts 122°
2026-05-07 19:40 33.39275 104.19139 35207 ft 545 kts 122°
2026-05-07 19:41 33.34796 104.26224 35235 ft 529 kts 143°
2026-05-07 19:41 33.28783 104.31061 35212 ft 514 kts 162°
2026-05-07 19:42 33.22207 104.34425 35233 ft 515 kts 162°
2026-05-07 19:42 33.15621 104.37848 35230 ft 518 kts 162°
2026-05-07 19:43 33.09029 104.41360 35215 ft 519 kts 162°
2026-05-07 19:43 33.02443 104.44890 35232 ft 519 kts 161°
2026-05-07 19:44 32.95849 104.48412 35230 ft 519 kts 161°
2026-05-07 19:44 32.89295 104.51895 35225 ft 519 kts 161°
2026-05-07 19:45 32.82695 104.55409 35491 ft 519 kts 162°
2026-05-07 19:45 32.79371 104.57015 35811 ft 510 kts 168°
2026-05-07 19:45 32.75985 104.58146 36112 ft 502 kts 174°
2026-05-07 19:46 32.72568 104.58892 36332 ft 497 kts 179°
2026-05-07 19:46 32.69140 104.59246 36454 ft 493 kts 185°
2026-05-07 19:46 32.65712 104.59335 36659 ft 492 kts 186°
2026-05-07 19:46 32.62303 104.59437 37013 ft 489 kts 186°
2026-05-07 19:47 32.58914 104.59577 37279 ft 487 kts 186°
2026-05-07 19:47 32.55540 104.59733 37212 ft 482 kts 185°
2026-05-07 19:47 32.48922 104.60042 37237 ft 472 kts 186°
2026-05-07 19:48 32.42357 104.60322 37245 ft 475 kts 186°
2026-05-07 19:48 32.35722 104.60651 37242 ft 478 kts 185°
2026-05-07 19:49 32.29067 104.61024 37241 ft 479 kts 185°
2026-05-07 19:49 32.22426 104.61392 37254 ft 477 kts 185°
2026-05-07 19:50 32.15810 104.61754 37226 ft 474 kts 185°
2026-05-07 19:50 32.09220 104.62114 37238 ft 473 kts 185°
2026-05-07 19:51 32.02637 104.62470 37201 ft 473 kts 186°
2026-05-07 19:51 31.96068 104.62825 37205 ft 472 kts 186°
2026-05-07 19:52 31.89555 104.63178 37218 ft 471 kts 186°
2026-05-07 19:52 31.83004 104.63532 37195 ft 471 kts 186°
2026-05-07 19:53 31.76447 104.63877 37169 ft 471 kts 186°
2026-05-07 19:53 31.69901 104.64146 37181 ft 471 kts 187°
2026-05-07 19:54 31.63332 104.64389 37171 ft 473 kts 187°
2026-05-07 19:54 31.56741 104.64644 37174 ft 474 kts 186°
2026-05-07 19:55 31.50172 104.64904 37176 ft 476 kts 186°
2026-05-07 19:55 31.43553 104.65168 37153 ft 476 kts 186°
2026-05-07 19:56 31.36931 104.65431 37168 ft 477 kts 186°
2026-05-07 19:56 31.30296 104.65694 37161 ft 477 kts 186°
2026-05-07 19:57 31.23664 104.65956 37170 ft 477 kts 186°
2026-05-07 19:57 31.17026 104.66219 37157 ft 477 kts 187°
2026-05-07 19:58 31.10379 104.66480 37166 ft 478 kts 187°
2026-05-07 19:58 31.03759 104.66786 37159 ft 482 kts 184°
2026-05-07 19:59 30.97063 104.67553 37161 ft 484 kts 182°
2026-05-07 19:59 30.90367 104.68360 37174 ft 484 kts 183°
2026-05-07 20:00 30.83654 104.69125 37174 ft 485 kts 183°
2026-05-07 20:00 30.76923 104.69883 37179 ft 486 kts 183°
2026-05-07 20:01 30.70183 104.70644 37177 ft 487 kts 183°
2026-05-07 20:01 30.63428 104.71407 37170 ft 488 kts 184°
2026-05-07 20:02 30.56652 104.72170 37176 ft 489 kts 184°
2026-05-07 20:02 30.49872 104.72925 37174 ft 490 kts 184°
2026-05-07 20:03 30.43075 104.73673 37172 ft 491 kts 184°
2026-05-07 20:03 30.36268 104.74423 37169 ft 491 kts 184°
2026-05-07 20:04 30.29457 104.75175 37170 ft 491 kts 184°
2026-05-07 20:04 30.22655 104.75924 37175 ft 491 kts 184°
2026-05-07 20:05 30.15863 104.76671 37180 ft 490 kts 184°
2026-05-07 20:05 30.09079 104.77416 37164 ft 490 kts 184°
2026-05-07 20:06 30.02290 104.78160 37173 ft 489 kts 184°
2026-05-07 20:06 29.95547 104.78903 37171 ft 490 kts 184°
2026-05-07 20:07 29.88763 104.79660 37160 ft 490 kts 184°
2026-05-07 20:07 29.81969 104.80419 37146 ft 490 kts 184°
2026-05-07 20:08 29.75181 104.81176 37151 ft 490 kts 184°
2026-05-07 20:08 29.68404 104.81928 37158 ft 489 kts 184°
2026-05-07 20:09 29.61627 104.82680 37150 ft 489 kts 184°
2026-05-07 20:10 29.51460 104.83805 37143 ft 489 kts 184°
2026-05-07 20:10 29.44694 104.84554 37144 ft 488 kts 184°
2026-05-07 20:11 29.37915 104.85315 37137 ft 490 kts 182°
2026-05-07 20:11 29.31153 104.87053 37132 ft 506 kts 172°
2026-05-07 20:12 29.24591 104.90129 37115 ft 516 kts 165°
2026-05-07 20:12 29.18059 104.93545 37113 ft 516 kts 165°
2026-05-07 20:13 29.11492 104.96863 37123 ft 517 kts 165°
2026-05-07 20:13 29.04889 105.00176 37121 ft 518 kts 165°
2026-05-07 20:14 28.98284 105.03498 37120 ft 519 kts 165°
2026-05-07 20:14 28.91666 105.06824 37110 ft 520 kts 165°
2026-05-07 20:15 28.85041 105.10159 37109 ft 521 kts 165°
2026-05-07 20:15 28.78396 105.13504 37105 ft 522 kts 165°
2026-05-07 20:16 28.71879 105.17292 37116 ft 527 kts 160°
2026-05-07 20:16 28.65412 105.21256 37077 ft 528 kts 160°
2026-05-07 20:17 28.58983 105.25177 37095 ft 528 kts 160°
2026-05-07 20:17 28.52498 105.29094 37106 ft 527 kts 161°
2026-05-07 20:18 28.46011 105.32993 37114 ft 528 kts 160°
2026-05-07 20:18 28.39523 105.36895 37104 ft 528 kts 161°
2026-05-07 20:19 28.33029 105.40800 37091 ft 527 kts 160°
2026-05-07 20:19 28.26541 105.44692 37109 ft 528 kts 160°
2026-05-07 20:20 28.20033 105.48590 37122 ft 529 kts 160°
2026-05-07 20:20 28.13511 105.52494 37120 ft 530 kts 160°
2026-05-07 20:21 28.06902 105.56061 37121 ft 520 kts 168°
2026-05-07 20:21 28.00033 105.58258 37135 ft 507 kts 178°
2026-05-07 20:22 27.93110 105.59337 37133 ft 501 kts 181°
2026-05-07 20:22 27.86240 105.60379 37158 ft 502 kts 180°
2026-05-07 20:23 27.79354 105.62243 37146 ft 517 kts 168°
2026-05-07 20:23 27.72724 105.65626 37154 ft 529 kts 158°
2026-05-07 20:24 27.66291 105.69701 37153 ft 530 kts 159°
2026-05-07 20:24 27.59691 105.73331 37176 ft 527 kts 162°
2026-05-07 20:25 27.53029 105.76794 37166 ft 527 kts 162°
2026-05-07 20:25 27.46387 105.80320 37179 ft 528 kts 162°
2026-05-07 20:26 27.39754 105.83897 37181 ft 529 kts 162°
2026-05-07 20:26 27.33118 105.87479 37170 ft 528 kts 162°
2026-05-07 20:27 27.26541 105.91015 37176 ft 527 kts 162°
2026-05-07 20:27 27.19930 105.94570 37173 ft 527 kts 162°
2026-05-07 20:28 27.13313 105.98120 37166 ft 527 kts 161°
2026-05-07 20:28 27.06784 106.01948 37174 ft 537 kts 152°
2026-05-07 20:29 27.01049 106.07490 37180 ft 553 kts 137°
2026-05-07 20:29 26.96321 106.14371 37178 ft 560 kts 131°
2026-05-07 20:30 26.91720 106.21425 37192 ft 561 kts 131°
2026-05-07 20:30 26.87051 106.28437 37179 ft 561 kts 131°
2026-05-07 20:31 26.83099 106.34275 37189 ft 562 kts 132°
2026-05-07 20:31 26.78408 106.41175 37176 ft 562 kts 131°
2026-05-07 20:32 26.73671 106.48143 37190 ft 561 kts 131°
2026-05-07 20:32 26.68944 106.55095 37200 ft 560 kts 131°
2026-05-07 20:33 26.64229 106.62024 37205 ft 560 kts 131°
2026-05-07 20:33 26.59513 106.68940 37210 ft 559 kts 131°
2026-05-07 20:34 26.54801 106.75841 37214 ft 558 kts 131°
2026-05-07 20:34 26.49815 106.82432 37211 ft 552 kts 140°
2026-05-07 20:35 26.44320 106.88382 37191 ft 550 kts 141°
2026-05-07 20:35 26.38830 106.94327 37207 ft 550 kts 140°
2026-05-07 20:36 26.33381 107.00323 37208 ft 551 kts 140°
2026-05-07 20:36 26.27932 107.06309 37192 ft 550 kts 140°
2026-05-07 20:37 26.22487 107.12282 37202 ft 549 kts 140°
2026-05-07 20:37 26.17045 107.18255 37204 ft 549 kts 140°
2026-05-07 20:38 26.11590 107.24232 37155 ft 550 kts 140°
2026-05-07 20:38 26.06192 107.30134 37191 ft 547 kts 140°
2026-05-07 20:39 26.00767 107.36062 37175 ft 546 kts 140°
2026-05-07 20:39 25.95336 107.41989 37171 ft 546 kts 140°
2026-05-07 20:40 25.89923 107.47884 37148 ft 545 kts 140°
2026-05-07 20:40 25.84505 107.53777 37167 ft 544 kts 140°
2026-05-07 20:41 25.79089 107.59663 37166 ft 544 kts 140°
2026-05-07 20:41 25.73710 107.65503 37140 ft 544 kts 140°
2026-05-07 20:42 25.68310 107.71372 37145 ft 543 kts 139°
2026-05-07 20:42 25.62941 107.77255 37122 ft 543 kts 139°
2026-05-07 20:43 25.57567 107.83138 37128 ft 543 kts 139°
2026-05-07 20:43 25.52187 107.89010 37124 ft 543 kts 139°
2026-05-07 20:44 25.46455 107.94308 37105 ft 530 kts 156°
2026-05-07 20:44 25.39675 107.97152 37101 ft 515 kts 175°
2026-05-07 20:45 25.32649 107.98005 37100 ft 508 kts 180°
2026-05-07 20:45 25.25618 107.98760 37103 ft 509 kts 180°
2026-05-07 20:46 25.18548 107.99594 37086 ft 511 kts 179°
2026-05-07 20:46 25.11516 108.00460 37056 ft 512 kts 179°
2026-05-07 20:47 25.04424 108.01337 37066 ft 513 kts 179°
2026-05-07 20:47 24.97324 108.02208 37054 ft 514 kts 179°
2026-05-07 20:48 24.90211 108.03076 37046 ft 514 kts 179°
2026-05-07 20:48 24.83104 108.03944 37024 ft 514 kts 179°
2026-05-07 20:49 24.75997 108.04811 37022 ft 514 kts 178°
2026-05-07 20:49 24.68886 108.05678 37030 ft 513 kts 178°
2026-05-07 20:50 24.61784 108.06541 37029 ft 513 kts 178°
2026-05-07 20:50 24.54694 108.07403 37027 ft 513 kts 178°
2026-05-07 20:51 24.47604 108.08266 37016 ft 512 kts 178°
2026-05-07 20:51 24.40530 108.09126 37019 ft 511 kts 178°
2026-05-07 20:52 24.33472 108.09983 37022 ft 510 kts 178°
2026-05-07 20:52 24.26453 108.10836 37013 ft 510 kts 178°
2026-05-07 20:53 24.19407 108.11692 37020 ft 510 kts 178°
2026-05-07 20:53 24.12356 108.12545 37019 ft 510 kts 179°
2026-05-07 20:54 24.05307 108.13398 37022 ft 510 kts 178°
2026-05-07 20:54 23.98247 108.14252 37012 ft 510 kts 178°
2026-05-07 20:55 23.91204 108.15249 36985 ft 514 kts 169°
2026-05-07 20:55 23.87879 108.16754 37027 ft 524 kts 152°
2026-05-07 20:55 23.85016 108.19269 37002 ft 534 kts 135°
2026-05-07 20:55 23.82857 108.22591 37036 ft 541 kts 120°
2026-05-07 20:56 23.81459 108.26414 36988 ft 546 kts 104°
2026-05-07 20:56 23.80995 108.30516 37036 ft 544 kts 93°
2026-05-07 20:56 23.80829 108.34657 37003 ft 547 kts 92°
2026-05-07 20:57 23.80531 108.42972 37024 ft 549 kts 93°
2026-05-07 20:57 23.80122 108.51326 37022 ft 552 kts 94°
2026-05-07 20:58 23.79630 108.59697 37020 ft 554 kts 94°
2026-05-07 20:58 23.79122 108.68102 37004 ft 555 kts 94°
2026-05-07 20:59 23.78623 108.76461 37015 ft 555 kts 94°
2026-05-07 20:59 23.78121 108.84865 36997 ft 555 kts 94°
2026-05-07 21:00 23.77614 108.93269 37011 ft 554 kts 94°
2026-05-07 21:00 23.77103 109.01660 36994 ft 554 kts 94°
2026-05-07 21:01 23.76589 109.10034 37001 ft 553 kts 94°
2026-05-07 21:01 23.75693 109.18345 36988 ft 551 kts 103°
2026-05-07 21:02 23.74003 109.26500 36984 ft 551 kts 104°
2026-05-07 21:02 23.72286 109.34644 37000 ft 551 kts 104°
2026-05-07 21:03 23.70625 109.42808 36983 ft 551 kts 103°
2026-05-07 21:03 23.68977 109.50982 36984 ft 552 kts 103°
2026-05-07 21:04 23.67318 109.59157 36992 ft 552 kts 103°
2026-05-07 21:04 23.65658 109.67276 36975 ft 552 kts 103°
2026-05-07 21:05 23.63974 109.75439 36980 ft 552 kts 103°
2026-05-07 21:05 23.62286 109.83608 36978 ft 552 kts 103°
2026-05-07 21:06 23.60597 109.91769 36990 ft 552 kts 103°
2026-05-07 21:06 23.58902 109.99938 36970 ft 551 kts 103°
2026-05-07 21:07 23.57205 110.08084 36961 ft 551 kts 103°
2026-05-07 21:07 23.55506 110.16231 36984 ft 551 kts 103°
2026-05-07 21:08 23.53803 110.24371 36971 ft 551 kts 103°
2026-05-07 21:08 23.52108 110.32456 36963 ft 551 kts 103°
2026-05-07 21:09 23.50411 110.40591 36978 ft 551 kts 103°
2026-05-07 21:09 23.48760 110.48745 36958 ft 551 kts 102°
2026-05-07 21:10 23.47108 110.56901 36961 ft 551 kts 103°
2026-05-07 21:10 23.45444 110.65054 36960 ft 552 kts 103°
2026-05-07 21:11 23.43768 110.73222 36964 ft 552 kts 103°
2026-05-07 21:11 23.41181 110.85447 36984 ft 552 kts 103°
2026-05-07 21:12 23.39442 110.93599 36948 ft 553 kts 103°
2026-05-07 21:12 23.37706 111.01755 36957 ft 553 kts 103°
2026-05-07 21:13 23.35969 111.09901 36956 ft 553 kts 103°
2026-05-07 21:13 23.34235 111.18061 36958 ft 553 kts 102°
2026-05-07 21:14 23.32596 111.26179 36952 ft 553 kts 102°
2026-05-07 21:14 23.30960 111.34341 36950 ft 553 kts 102°
2026-05-07 21:15 23.29300 111.42518 36946 ft 554 kts 102°
2026-05-07 21:15 23.27633 111.50679 36945 ft 553 kts 102°
2026-05-07 21:16 23.25936 111.58821 36952 ft 553 kts 103°
2026-05-07 21:16 23.24179 111.66970 36950 ft 554 kts 103°
2026-05-07 21:17 23.22426 111.75119 36951 ft 553 kts 103°
2026-05-07 21:17 23.20676 111.83275 36945 ft 553 kts 103°
2026-05-07 21:18 23.18971 111.91425 36955 ft 553 kts 102°
2026-05-07 21:18 23.17289 111.99586 36945 ft 553 kts 102°
2026-05-07 21:19 23.15599 112.07742 36947 ft 553 kts 102°
2026-05-07 21:19 23.13897 112.15892 36946 ft 553 kts 102°
2026-05-07 21:20 23.12201 112.23985 36934 ft 553 kts 102°
2026-05-07 21:20 23.10492 112.32125 36943 ft 553 kts 102°
2026-05-07 21:21 23.08779 112.40270 36938 ft 553 kts 102°
2026-05-07 21:21 23.07367 112.47047 36942 ft 553 kts 101°
2026-05-07 21:22 23.06432 112.55309 36945 ft 551 kts 92°
2026-05-07 21:22 23.05956 112.63622 36932 ft 551 kts 92°
2026-05-07 21:23 23.05451 112.71927 36934 ft 551 kts 92°
2026-05-07 21:23 23.04893 112.80229 36937 ft 551 kts 93°
2026-05-07 21:24 23.04319 112.88529 36930 ft 550 kts 93°
2026-05-07 21:24 23.03747 112.96804 36928 ft 550 kts 93°
2026-05-07 21:25 23.03175 113.05072 36927 ft 549 kts 93°
2026-05-07 21:25 23.02528 113.13272 36917 ft 548 kts 99°
2026-05-07 21:26 23.01503 113.17244 36931 ft 548 kts 113°
2026-05-07 21:26 22.99776 113.20914 36924 ft 547 kts 124°
2026-05-07 21:26 22.97465 113.24179 36923 ft 544 kts 137°
2026-05-07 21:26 22.94720 113.26973 36952 ft 540 kts 140°
2026-05-07 21:27 22.89140 113.32463 36922 ft 543 kts 140°
2026-05-07 21:27 22.83583 113.38042 36940 ft 545 kts 139°
2026-05-07 21:28 22.78050 113.43694 36942 ft 547 kts 139°
2026-05-07 21:28 22.72511 113.49368 36925 ft 548 kts 139°
2026-05-07 21:29 22.66962 113.55035 36928 ft 548 kts 139°
2026-05-07 21:29 22.61409 113.60691 36945 ft 548 kts 139°
2026-05-07 21:30 22.55866 113.66331 36946 ft 547 kts 139°
2026-05-07 21:30 22.50368 113.71920 36942 ft 544 kts 138°
2026-05-07 21:31 22.44862 113.77511 36929 ft 542 kts 138°
2026-05-07 21:31 22.39371 113.83080 36932 ft 540 kts 138°
2026-05-07 21:32 22.33986 113.88740 36948 ft 540 kts 134°
2026-05-07 21:32 22.28952 113.94751 36941 ft 540 kts 133°
2026-05-07 21:33 22.23901 114.00770 36929 ft 541 kts 133°
2026-05-07 21:33 22.19017 114.06953 36948 ft 542 kts 129°
2026-05-07 21:34 22.14385 114.13375 36929 ft 543 kts 128°
2026-05-07 21:34 22.09788 114.19778 36947 ft 544 kts 128°
2026-05-07 21:35 22.05127 114.26206 36948 ft 544 kts 128°
2026-05-07 21:35 22.00446 114.32623 36949 ft 545 kts 128°
2026-05-07 21:36 21.95755 114.39043 36946 ft 545 kts 128°
2026-05-07 21:36 21.91063 114.45460 36948 ft 545 kts 128°
2026-05-07 21:37 21.86376 114.51865 36940 ft 545 kts 128°
2026-05-07 21:37 21.81685 114.58269 36943 ft 544 kts 128°
2026-05-07 21:38 21.76998 114.64660 36941 ft 543 kts 128°
2026-05-07 21:38 21.72312 114.71041 36940 ft 543 kts 128°
2026-05-07 21:39 21.67633 114.77406 36944 ft 542 kts 128°
2026-05-07 21:39 21.62953 114.83765 36942 ft 542 kts 128°
2026-05-07 21:40 21.58275 114.90113 36944 ft 542 kts 128°
2026-05-07 21:40 21.53590 114.96463 36939 ft 542 kts 128°
2026-05-07 21:41 21.48934 115.02767 36938 ft 542 kts 128°
2026-05-07 21:41 21.44243 115.09111 36940 ft 542 kts 128°
2026-05-07 21:42 21.39559 115.15440 36940 ft 541 kts 128°
2026-05-07 21:42 21.34873 115.21763 36941 ft 541 kts 128°
2026-05-07 21:43 21.30192 115.28073 36935 ft 540 kts 128°
2026-05-07 21:43 21.25539 115.34391 36939 ft 539 kts 126°
2026-05-07 21:44 21.21564 115.41194 36944 ft 538 kts 118°
2026-05-07 21:44 21.17913 115.48186 36935 ft 538 kts 118°
2026-05-07 21:45 21.14261 115.55116 36935 ft 538 kts 118°
2026-05-07 21:45 21.10542 115.62076 36937 ft 538 kts 119°
2026-05-07 21:46 21.06815 115.69016 36940 ft 537 kts 119°
2026-05-07 21:46 21.03092 115.75948 36938 ft 537 kts 119°
2026-05-07 21:47 20.99371 115.82873 36937 ft 536 kts 119°
2026-05-07 21:47 20.95659 115.89775 36935 ft 535 kts 119°
2026-05-07 21:48 20.91951 115.96660 36934 ft 534 kts 119°
2026-05-07 21:48 20.88249 116.03525 36932 ft 532 kts 119°
2026-05-07 21:49 20.83802 116.09837 36935 ft 532 kts 135°
2026-05-07 21:49 20.78077 116.14803 36934 ft 531 kts 148°
2026-05-07 21:50 20.71800 116.18957 36937 ft 531 kts 149°
2026-05-07 21:50 20.65501 116.23111 36931 ft 532 kts 149°
2026-05-07 21:51 20.59238 116.27317 36930 ft 532 kts 148°
2026-05-07 21:51 20.52983 116.31551 36926 ft 532 kts 148°
2026-05-07 21:52 20.46778 116.35748 36925 ft 532 kts 148°
2026-05-07 21:52 20.40527 116.39966 36923 ft 531 kts 148°
2026-05-07 21:53 20.34276 116.44176 36923 ft 531 kts 148°
2026-05-07 21:53 20.28030 116.48380 36917 ft 531 kts 148°
2026-05-07 21:54 20.21783 116.52581 36924 ft 531 kts 148°
2026-05-07 21:54 20.15531 116.56781 36924 ft 532 kts 148°
2026-05-07 21:55 20.09274 116.60982 36922 ft 531 kts 148°
2026-05-07 21:55 20.03033 116.65203 36917 ft 531 kts 145°
2026-05-07 21:56 19.97324 116.70180 36921 ft 531 kts 135°
2026-05-07 21:56 19.92361 116.75918 36927 ft 530 kts 131°
2026-05-07 21:57 19.87426 116.81751 36918 ft 531 kts 131°
2026-05-07 21:57 19.82459 116.87553 36919 ft 531 kts 132°
2026-05-07 21:58 19.77466 116.93336 36921 ft 531 kts 132°
2026-05-07 21:58 19.72471 116.99107 36921 ft 531 kts 132°
2026-05-07 21:59 19.67473 117.04879 36918 ft 531 kts 132°
2026-05-07 21:59 19.62477 117.10646 36918 ft 531 kts 132°
2026-05-07 22:00 19.57481 117.16408 36912 ft 531 kts 132°
2026-05-07 22:00 19.52485 117.22165 36919 ft 530 kts 132°
2026-05-07 22:01 19.47485 117.27920 36912 ft 530 kts 132°
2026-05-07 22:01 19.42487 117.33667 36912 ft 530 kts 132°
2026-05-07 22:02 19.37488 117.39410 36913 ft 530 kts 132°
2026-05-07 22:02 19.32518 117.45114 36913 ft 530 kts 132°
2026-05-07 22:03 19.27518 117.50848 36914 ft 530 kts 132°
2026-05-07 22:03 19.22517 117.56576 36911 ft 529 kts 132°
2026-05-07 22:04 19.17527 117.62286 36910 ft 528 kts 132°
2026-05-07 22:04 19.12538 117.67992 36906 ft 528 kts 132°
2026-05-07 22:05 19.07551 117.73689 36909 ft 528 kts 132°
2026-05-07 22:05 19.02560 117.79386 36910 ft 527 kts 132°
2026-05-07 22:06 18.97567 117.85069 36907 ft 527 kts 132°
2026-05-07 22:06 18.92571 117.90748 36908 ft 527 kts 132°
2026-05-07 22:07 18.87578 117.96421 36904 ft 528 kts 132°
2026-05-07 22:07 18.82580 118.02096 36902 ft 527 kts 132°
2026-05-07 22:08 18.77584 118.07764 36905 ft 527 kts 132°
2026-05-07 22:08 18.72596 118.13417 36903 ft 526 kts 132°
2026-05-07 22:09 18.67612 118.19061 36900 ft 525 kts 132°
2026-05-07 22:09 18.62634 118.24692 36902 ft 524 kts 132°
2026-05-07 22:10 18.57661 118.30312 36901 ft 524 kts 132°
2026-05-07 22:10 18.52684 118.35932 36899 ft 524 kts 132°
2026-05-07 22:11 18.47739 118.41511 36896 ft 524 kts 132°
2026-05-07 22:11 18.42763 118.47120 36892 ft 524 kts 132°
2026-05-07 22:12 18.38628 118.51776 36900 ft 523 kts 132°
2026-05-07 22:12 18.33626 118.57405 36898 ft 523 kts 132°
2026-05-07 22:13 18.28687 118.62957 36894 ft 523 kts 132°
2026-05-07 22:13 18.23714 118.68544 36897 ft 523 kts 132°
2026-05-07 22:14 18.18741 118.74125 36891 ft 523 kts 132°
2026-05-07 22:14 18.13769 118.79700 36893 ft 523 kts 132°
2026-05-07 22:15 18.08791 118.85278 36887 ft 523 kts 132°
2026-05-07 22:15 18.03809 118.90856 36893 ft 523 kts 132°
2026-05-07 22:16 17.98431 118.96006 36901 ft 524 kts 142°
2026-05-07 22:16 17.92280 119.00116 36897 ft 525 kts 151°
2026-05-07 22:17 17.85853 119.03770 36887 ft 526 kts 151°
2026-05-07 22:17 17.78809 119.07777 36889 ft 526 kts 151°
2026-05-07 22:18 17.69190 119.13328 36887 ft 526 kts 151°
2026-05-07 22:19 17.62775 119.17041 36888 ft 527 kts 151°
2026-05-07 22:19 17.56350 119.20756 36884 ft 527 kts 151°
2026-05-07 22:20 17.49930 119.24461 36883 ft 527 kts 151°
2026-05-07 22:20 17.43544 119.28143 36881 ft 527 kts 151°
2026-05-07 22:21 17.37131 119.31838 36884 ft 526 kts 151°
2026-05-07 22:21 17.30722 119.35528 36883 ft 525 kts 151°
2026-05-07 22:22 17.24331 119.39204 36878 ft 524 kts 151°
2026-05-07 22:22 17.17943 119.42876 36880 ft 524 kts 151°
2026-05-07 22:23 17.11554 119.46546 36878 ft 524 kts 151°
2026-05-07 22:23 17.05173 119.50207 36882 ft 523 kts 151°
2026-05-07 22:24 16.98796 119.53864 36879 ft 522 kts 151°
2026-05-07 22:24 16.92431 119.57511 36879 ft 522 kts 151°
2026-05-07 22:25 16.86066 119.61155 36876 ft 521 kts 151°
2026-05-07 22:25 16.79716 119.64788 36880 ft 520 kts 151°
2026-05-07 22:26 16.73367 119.68418 36885 ft 520 kts 151°
2026-05-07 22:26 16.67027 119.72039 36878 ft 519 kts 151°
2026-05-07 22:27 16.60730 119.75633 36883 ft 519 kts 151°
2026-05-07 22:27 16.54394 119.79247 36883 ft 519 kts 151°
2026-05-07 22:28 16.48064 119.82855 36887 ft 519 kts 152°
2026-05-07 22:28 16.41733 119.86460 36885 ft 518 kts 152°
2026-05-07 22:29 16.35406 119.90061 36889 ft 518 kts 152°
2026-05-07 22:29 16.29067 119.93665 36887 ft 519 kts 152°
2026-05-07 22:30 16.22735 119.97264 36887 ft 519 kts 152°
2026-05-07 22:30 16.16403 120.00859 36889 ft 519 kts 152°
2026-05-07 22:31 16.10067 120.04454 36890 ft 519 kts 152°
2026-05-07 22:31 16.03734 120.08045 36894 ft 518 kts 151°
2026-05-07 22:32 15.97404 120.11631 36897 ft 518 kts 152°
2026-05-07 22:32 15.92174 120.14593 36885 ft 510 kts 152°
2026-05-07 22:32 15.88004 120.16953 35939 ft 511 kts 151°
2026-05-07 22:33 15.85943 120.18119 35445 ft 510 kts 151°
2026-05-07 22:33 15.81797 120.20464 34260 ft 513 kts 151°
2026-05-07 22:33 15.78648 120.22244 33228 ft 516 kts 151°
2026-05-07 22:33 15.76518 120.23448 32529 ft 518 kts 151°
2026-05-07 22:34 15.72318 120.25821 31174 ft 520 kts 150°
2026-05-07 22:34 15.70167 120.27036 30560 ft 520 kts 150°
2026-05-07 22:34 15.67006 120.28820 29867 ft 515 kts 150°
2026-05-07 22:34 15.63913 120.30568 29060 ft 510 kts 150°
2026-05-07 22:35 15.60812 120.32322 28336 ft 505 kts 150°
2026-05-07 22:35 15.57762 120.34046 28031 ft 491 kts 150°
2026-05-07 22:35 15.54809 120.35715 27818 ft 477 kts 150°
2026-05-07 22:35 15.51934 120.37339 27637 ft 464 kts 151°
2026-05-07 22:36 15.49135 120.38921 27439 ft 452 kts 151°
2026-05-07 22:36 15.46413 120.40462 27250 ft 440 kts 151°
2026-05-07 22:36 15.43756 120.41965 27078 ft 430 kts 151°
2026-05-07 22:36 15.41150 120.43411 26874 ft 419 kts 154°
2026-05-07 22:37 15.38453 120.44480 26600 ft 411 kts 162°
2026-05-07 22:37 15.35712 120.45325 26115 ft 411 kts 164°
2026-05-07 22:37 15.32981 120.46117 25845 ft 404 kts 164°
2026-05-07 22:37 15.30306 120.46900 25607 ft 396 kts 164°
2026-05-07 22:38 15.27633 120.47703 24858 ft 404 kts 163°
2026-05-07 22:38 15.24943 120.48534 24481 ft 401 kts 163°
2026-05-07 22:38 15.22307 120.49361 24314 ft 391 kts 163°
2026-05-07 22:38 15.19733 120.50175 24145 ft 382 kts 163°
2026-05-07 22:39 15.17232 120.50968 23918 ft 370 kts 163°
2026-05-07 22:39 15.14799 120.51741 23426 ft 362 kts 163°
2026-05-07 22:39 15.12398 120.52502 22675 ft 360 kts 163°
2026-05-07 22:39 15.10041 120.53249 21944 ft 358 kts 162°
2026-05-07 22:40 15.07682 120.53997 21453 ft 349 kts 162°
2026-05-07 22:40 15.05384 120.54725 21075 ft 342 kts 162°
2026-05-07 22:40 15.03117 120.55443 20704 ft 340 kts 162°
2026-05-07 22:40 15.00860 120.56158 20339 ft 338 kts 162°
2026-05-07 22:41 14.98611 120.56870 19960 ft 337 kts 162°
2026-05-07 22:41 14.96373 120.57579 19586 ft 336 kts 162°
2026-05-07 22:41 14.94134 120.58287 19201 ft 336 kts 162°
2026-05-07 22:41 14.91903 120.58992 18824 ft 335 kts 162°
2026-05-07 22:42 14.89675 120.59697 18440 ft 335 kts 162°
2026-05-07 22:42 14.87446 120.60402 18041 ft 335 kts 162°
2026-05-07 22:42 14.85218 120.61106 17605 ft 334 kts 162°
2026-05-07 22:42 14.82998 120.61808 17216 ft 333 kts 162°
2026-05-07 22:43 14.80790 120.62508 16864 ft 330 kts 162°
2026-05-07 22:43 14.78605 120.63209 16506 ft 328 kts 161°
2026-05-07 22:43 14.76438 120.63916 16162 ft 325 kts 161°
2026-05-07 22:43 14.74288 120.64627 15814 ft 324 kts 161°
2026-05-07 22:44 14.72147 120.65344 15420 ft 324 kts 161°
2026-05-07 22:44 14.70007 120.66065 15032 ft 324 kts 160°
2026-05-07 22:44 14.67866 120.66788 14644 ft 323 kts 160°
2026-05-07 22:44 14.65715 120.67522 14183 ft 326 kts 160°
2026-05-07 22:45 14.63578 120.68266 13781 ft 326 kts 159°
2026-05-07 22:45 14.61452 120.69120 13269 ft 328 kts 156°
2026-05-07 22:45 14.59359 120.70070 12861 ft 327 kts 154°
2026-05-07 22:45 14.57322 120.71072 12622 ft 321 kts 152°
2026-05-07 22:46 14.55346 120.72094 12380 ft 314 kts 152°
2026-05-07 22:46 14.53469 120.73162 12077 ft 300 kts 142°
2026-05-07 22:46 14.52056 120.74708 11348 ft 298 kts 120°
2026-05-07 22:46 14.51263 120.76674 10589 ft 298 kts 102°
2026-05-07 22:47 14.50961 120.78784 9960 ft 296 kts 93°
2026-05-07 22:47 14.50920 120.80872 9554 ft 285 kts 91°
2026-05-07 22:47 14.50923 120.82885 9033 ft 279 kts 89°
2026-05-07 22:47 14.50978 120.84848 8417 ft 274 kts 88°
2026-05-07 22:48 14.51081 120.86729 8215 ft 248 kts 86°
2026-05-07 22:48 14.51216 120.88461 8000 ft 240 kts 84°
2026-05-07 22:48 14.51358 120.90180 7601 ft 242 kts 87°
2026-05-07 22:48 14.51405 120.91911 7321 ft 237 kts 92°
2026-05-07 22:49 14.51061 120.93540 7065 ft 234 kts 115°
2026-05-07 22:49 14.50057 120.94910 6639 ft 247 kts 137°
2026-05-07 22:49 14.48607 120.95876 6391 ft 247 kts 154°
2026-05-07 22:49 14.46993 120.96270 6388 ft 234 kts 174°
2026-05-07 22:50 14.45443 120.95945 6178 ft 231 kts 206°
2026-05-07 22:50 14.44235 120.94858 5797 ft 232 kts 228°
2026-05-07 22:50 14.43283 120.93517 5438 ft 231 kts 233°
2026-05-07 22:50 14.42442 120.92115 5093 ft 229 kts 237°
2026-05-07 22:51 14.41651 120.90695 4753 ft 227 kts 237°
2026-05-07 22:51 14.40873 120.89286 4405 ft 226 kts 238°
2026-05-07 22:51 14.40097 120.87883 4030 ft 224 kts 238°
2026-05-07 22:51 14.39312 120.86489 3610 ft 225 kts 238°
2026-05-07 22:52 14.38750 120.84973 3140 ft 231 kts 263°
2026-05-07 22:52 14.39033 120.83397 2931 ft 222 kts 303°
2026-05-07 22:52 14.40103 120.82315 2750 ft 214 kts 335°
2026-05-07 22:52 14.41454 120.81934 2567 ft 194 kts
2026-05-07 22:53 14.42674 120.82279 2483 ft 176 kts 34°
2026-05-07 22:53 14.43547 120.83152 2300 ft 176 kts 63°
2026-05-07 22:53 14.43899 120.84334 2253 ft 173 kts 83°
2026-05-07 22:53 14.43910 120.85549 2121 ft 171 kts 91°
2026-05-07 22:54 14.43830 120.86771 1996 ft 165 kts 92°
2026-05-07 22:54 14.43773 120.87914 1780 ft 161 kts 85°
2026-05-07 22:54 14.43972 120.89018 1518 ft 157 kts 73°
2026-05-07 22:54 14.44340 120.90095 1325 ft 159 kts 67°
2026-05-07 22:55 14.44820 120.91166 1145 ft 170 kts 59°
2026-05-07 22:55 14.45447 120.92185 1094 ft 170 kts 57°
2026-05-07 22:55 14.46157 120.93146 1048 ft 167 kts 50°
2026-05-07 22:55 14.46771 120.94167 981 ft 170 kts 61°
2026-05-07 22:56 14.47287 120.95264 969 ft 170 kts 69°
2026-05-07 22:56 14.47715 120.96411 850 ft 173 kts 62°
2026-05-07 22:56 14.48358 120.97407 679 ft 159 kts 59°
2026-05-07 22:56 14.48879 120.98378 470 ft 148 kts 62°
2026-05-07 22:57 14.49399 120.99314 295 ft 154 kts 60°
2026-05-07 22:57 14.49948 121.00291 103 ft 161 kts 61°
2026-05-07 22:57 14.50460 121.01229 70 ft 129 kts 60°
2026-05-07 22:57 14.50815 121.01864 63 ft 75 kts 60°
2026-05-07 22:58 14.50985 121.02171 65 ft 32 kts 60°
2026-05-07 22:58 14.51092 121.02272 70 ft 13 kts 33°
2026-05-07 22:58 14.51173 121.02292 70 ft 13 kts 326°
2026-05-07 22:58 14.51163 121.02205 66 ft 13 kts 244°
2026-05-07 22:59 14.51113 121.02124 64 ft 13 kts 238°
2026-05-07 22:59 14.51083 121.02068 63 ft 13 kts 241°
2026-05-07 22:59 14.51022 121.01955 63 ft 13 kts 240°
2026-05-07 22:59 14.50975 121.01874 66 ft 13 kts 238°
2026-05-07 23:00 14.50928 121.01790 64 ft 13 kts 242°
2026-05-07 23:00 14.50883 121.01706 67 ft 13 kts 240°
2026-05-07 23:00 14.50837 121.01622 67 ft 13 kts 241°
2026-05-07 23:00 14.50791 121.01539 66 ft 13 kts 240°
2026-05-07 23:01 14.50743 121.01456 66 ft 13 kts 239°
2026-05-07 23:01 14.50712 121.01400 64 ft 13 kts 240°
2026-05-07 23:01 14.50681 121.01344 63 ft 13 kts 239°
2026-05-07 23:01 14.50620 121.01233 67 ft 13 kts 241°
2026-05-07 23:02 14.50612 121.01115 69 ft 14 kts 291°
2026-05-07 23:02 14.50587 121.01022 63 ft 14 kts 242°
2026-05-07 23:02 14.50538 121.00937 65 ft 14 kts 239°
2026-05-07 23:02 14.50497 121.00848 64 ft 14 kts 264°
2026-05-07 23:03 14.50521 121.00807 65 ft 6 kts 327°
2026-05-07 23:03 14.50560 121.00790 66 ft 7 kts 337°
2026-05-07 23:03 14.50599 121.00764 66 ft 7 kts 291°
2026-05-07 23:03 14.50579 121.00720 65 ft 0 kts 242°
2026-05-07 23:04 14.50577 121.00716 65 ft 1 kts 242°
2026-05-07 23:04 14.50574 121.00711 65 ft 0 kts 242°